Time,TemperatureF,DewpointF,PressureIn,WindDirection,WindDirectionDegrees,WindSpeedMPH,WindSpeedGustMPH,Humidity,HourlyPrecipIn,Conditions,Clouds,dailyrainin,SoftwareType,DateUTC
2013-06-28 00:00:00,69.7,67.6,29.58,SW,221,9.0,13.0,93,0.00,,---,0.02,VWS V12.08,2013-06-28 04:00:00,
2013-06-28 00:01:00,69.7,67.6,29.58,SSW,207,9.0,13.0,93,0.00,,---,0.00,VWS V12.08,2013-06-28 04:01:00,
2013-06-28 00:06:00,69.4,67.3,29.58,SW,215,6.0,12.0,93,0.00,,---,0.00,VWS V12.08,2013-06-28 04:06:00,
2013-06-28 00:11:00,69.1,67.0,29.58,SSW,213,7.0,8.0,93,0.00,,---,0.00,VWS V12.08,2013-06-28 04:11:00,
2013-06-28 00:16:00,69.5,67.7,29.58,SW,225,8.0,11.0,94,0.00,,---,0.00,VWS V12.08,2013-06-28 04:16:00,
2013-06-28 00:17:00,69.6,67.8,29.58,SW,235,4.0,11.0,94,0.00,,---,0.00,VWS V12.08,2013-06-28 04:17:00,
2013-06-28 00:21:00,69.9,68.1,29.58,SSW,210,7.0,7.0,94,0.00,,---,0.00,VWS V12.08,2013-06-28 04:21:00,
2013-06-28 00:22:00,69.9,68.1,29.58,WSW,237,7.0,10.0,94,0.00,,---,0.00,VWS V12.08,2013-06-28 04:22:00,
2013-06-28 00:26:00,70.1,68.3,29.58,SW,221,8.0,11.0,94,0.00,,---,0.00,VWS V12.08,2013-06-28 04:26:00,
2013-06-28 00:27:00,70.1,68.3,29.58,SW,231,5.0,11.0,94,0.00,,---,0.00,VWS V12.08,2013-06-28 04:27:00,
2013-06-28 00:31:00,69.5,67.4,29.57,SW,223,6.0,10.0,93,0.00,,---,0.00,VWS V12.08,2013-06-28 04:31:00,
2013-06-28 00:32:00,69.5,67.4,29.57,SW,229,5.0,10.0,93,0.00,,---,0.00,VWS V12.08,2013-06-28 04:32:00,
2013-06-28 00:36:00,69.0,66.9,29.57,SW,221,7.0,11.0,93,0.00,,---,0.00,VWS V12.08,2013-06-28 04:36:00,
2013-06-28 00:37:00,69.0,66.9,29.57,WSW,242,10.0,11.0,93,0.00,,---,0.00,VWS V12.08,2013-06-28 04:37:00,
2013-06-28 00:41:00,68.9,66.8,29.57,SW,225,9.0,10.0,93,0.00,,---,0.00,VWS V12.08,2013-06-28 04:41:00,
2013-06-28 00:42:00,68.9,66.8,29.57,SSW,209,8.0,10.0,93,0.00,,---,0.00,VWS V12.08,2013-06-28 04:42:00,
2013-06-28 00:46:00,68.7,66.6,29.57,SW,215,9.0,10.0,93,0.00,,---,0.00,VWS V12.08,2013-06-28 04:46:00,
2013-06-28 00:47:00,68.7,66.6,29.57,SW,224,8.0,10.0,93,0.00,,---,0.00,VWS V12.08,2013-06-28 04:47:00,
2013-06-28 00:51:00,69.2,67.4,29.57,SSW,202,9.0,11.0,94,0.00,,---,0.00,VWS V12.08,2013-06-28 04:51:00,
2013-06-28 00:52:00,69.2,67.4,29.57,SSW,210,10.0,11.0,94,0.00,,---,0.00,VWS V12.08,2013-06-28 04:52:00,
2013-06-28 00:56:00,69.0,67.2,29.57,SSW,196,19.0,19.0,94,0.00,,---,0.00,VWS V12.08,2013-06-28 04:56:00,
2013-06-28 00:57:00,69.1,67.3,29.57,South,181,19.0,19.0,94,0.00,,---,0.00,VWS V12.08,2013-06-28 04:57:00,
2013-06-28 01:01:00,69.3,67.5,29.58,SSW,211,15.0,15.0,94,0.00,,---,0.00,VWS V12.08,2013-06-28 05:01:00,
2013-06-28 01:02:00,69.3,67.5,29.58,SSW,207,13.0,16.0,94,0.00,,---,0.00,VWS V12.08,2013-06-28 05:02:00,
2013-06-28 01:03:00,69.3,67.5,29.58,SSW,201,12.0,16.0,94,0.00,,---,0.00,VWS V12.08,2013-06-28 05:03:00,
2013-06-28 01:07:00,69.0,66.9,29.58,South,180,12.0,17.0,93,0.00,,---,0.00,VWS V12.08,2013-06-28 05:07:00,
2013-06-28 01:08:00,69.0,66.9,29.57,SSW,196,12.0,17.0,93,0.00,,---,0.00,VWS V12.08,2013-06-28 05:08:00,
2013-06-28 01:12:00,68.8,67.0,29.57,SSW,207,13.0,15.0,94,0.00,,---,0.00,VWS V12.08,2013-06-28 05:12:00,
2013-06-28 01:13:00,68.8,67.0,29.58,SSW,205,14.0,15.0,94,0.00,,---,0.00,VWS V12.08,2013-06-28 05:13:00,
2013-06-28 01:17:00,68.8,67.0,29.57,SSW,211,10.0,15.0,94,0.00,,---,0.00,VWS V12.08,2013-06-28 05:17:00,
2013-06-28 01:18:00,68.7,66.9,29.57,South,184,10.0,15.0,94,0.00,,---,0.00,VWS V12.08,2013-06-28 05:18:00,
2013-06-28 01:22:00,68.7,66.9,29.57,SW,228,11.0,12.0,94,0.00,,---,0.00,VWS V12.08,2013-06-28 05:22:00,
2013-06-28 01:23:00,68.7,66.9,29.57,SSW,211,11.0,13.0,94,0.00,,---,0.00,VWS V12.08,2013-06-28 05:23:00,
2013-06-28 01:27:00,68.7,66.9,29.57,SW,217,10.0,13.0,94,0.00,,---,0.00,VWS V12.08,2013-06-28 05:27:00,
2013-06-28 01:28:00,68.6,66.8,29.57,SSW,211,6.0,13.0,94,0.00,,---,0.00,VWS V12.08,2013-06-28 05:28:00,
2013-06-28 01:32:00,68.5,66.7,29.57,SW,221,6.0,11.0,94,0.00,,---,0.00,VWS V12.08,2013-06-28 05:32:00,
2013-06-28 01:33:00,68.5,66.7,29.57,SSW,207,9.0,13.0,94,0.00,,---,0.00,VWS V12.08,2013-06-28 05:33:00,
2013-06-28 01:37:00,68.4,66.6,29.56,SSW,212,9.0,13.0,94,0.00,,---,0.00,VWS V12.08,2013-06-28 05:37:00,
2013-06-28 01:38:00,68.4,66.6,29.56,SSW,198,12.0,13.0,94,0.00,,---,0.00,VWS V12.08,2013-06-28 05:38:00,
2013-06-28 01:39:00,68.4,66.6,29.56,SW,216,9.0,13.0,94,0.00,,---,0.00,VWS V12.08,2013-06-28 05:39:00,
2013-06-28 01:42:00,68.4,66.6,29.56,SSW,203,10.0,15.0,94,0.00,,---,0.00,VWS V12.08,2013-06-28 05:42:00,
2013-06-28 01:43:00,68.3,66.5,29.56,SW,219,11.0,15.0,94,0.00,,---,0.00,VWS V12.08,2013-06-28 05:43:00,
2013-06-28 01:44:00,68.3,66.5,29.56,SW,229,9.0,15.0,94,0.00,,---,0.00,VWS V12.08,2013-06-28 05:44:00,
2013-06-28 01:47:00,68.3,66.5,29.56,WSW,246,9.0,15.0,94,0.00,,---,0.00,VWS V12.08,2013-06-28 05:47:00,
2013-06-28 01:48:00,68.3,66.5,29.56,SW,232,9.0,15.0,94,0.00,,---,0.00,VWS V12.08,2013-06-28 05:48:00,
2013-06-28 01:49:00,68.4,66.6,29.56,SW,235,14.0,15.0,94,0.00,,---,0.00,VWS V12.08,2013-06-28 05:49:00,
2013-06-28 01:52:00,68.6,66.8,29.56,SW,223,9.0,13.0,94,0.00,,---,0.00,VWS V12.08,2013-06-28 05:52:00,
2013-06-28 01:53:00,68.7,66.9,29.56,SW,234,9.0,13.0,94,0.00,,---,0.00,VWS V12.08,2013-06-28 05:53:00,
2013-06-28 01:54:00,68.8,67.0,29.56,SW,221,10.0,13.0,94,0.00,,---,0.00,VWS V12.08,2013-06-28 05:54:00,
2013-06-28 01:58:00,69.1,67.3,29.56,SW,215,9.0,13.0,94,0.00,,---,0.00,VWS V12.08,2013-06-28 05:58:00,
2013-06-28 01:59:00,69.2,67.4,29.56,WSW,252,11.0,13.0,94,0.00,,---,0.00,VWS V12.08,2013-06-28 05:59:00,
2013-06-28 02:03:00,69.6,68.1,29.55,SSW,204,12.0,13.0,95,0.00,,---,0.00,VWS V12.08,2013-06-28 06:03:00,
2013-06-28 02:04:00,69.6,67.8,29.55,SW,217,12.0,13.0,94,0.00,,---,0.00,VWS V12.08,2013-06-28 06:04:00,
2013-06-28 02:08:00,69.6,67.8,29.55,SW,234,7.0,14.0,94,0.00,,---,0.00,VWS V12.08,2013-06-28 06:08:00,
2013-06-28 02:09:00,69.7,67.9,29.55,SW,226,7.0,14.0,94,0.00,,---,0.00,VWS V12.08,2013-06-28 06:09:00,
2013-06-28 02:10:00,69.6,67.8,29.55,SSW,212,12.0,14.0,94,0.00,,---,0.00,VWS V12.08,2013-06-28 06:10:00,
2013-06-28 02:13:00,69.7,67.9,29.55,SSW,212,10.0,16.0,94,0.00,,---,0.00,VWS V12.08,2013-06-28 06:13:00,
2013-06-28 02:14:00,69.8,68.0,29.55,SW,226,7.0,16.0,94,0.00,,---,0.00,VWS V12.08,2013-06-28 06:14:00,
2013-06-28 02:15:00,69.8,68.0,29.55,SSW,202,8.0,16.0,94,0.00,,---,0.00,VWS V12.08,2013-06-28 06:15:00,
2013-06-28 02:18:00,69.7,67.9,29.55,SW,225,10.0,16.0,94,0.00,,---,0.00,VWS V12.08,2013-06-28 06:18:00,
2013-06-28 02:19:00,69.6,67.8,29.55,SSW,210,7.0,16.0,94,0.00,,---,0.00,VWS V12.08,2013-06-28 06:19:00,
2013-06-28 02:20:00,69.6,67.8,29.55,SSW,213,10.0,16.0,94,0.00,,---,0.00,VWS V12.08,2013-06-28 06:20:00,
2013-06-28 02:23:00,69.4,67.6,29.55,SW,218,10.0,11.0,94,0.00,,---,0.00,VWS V12.08,2013-06-28 06:23:00,
2013-06-28 02:24:00,69.4,67.6,29.55,WSW,240,10.0,14.0,94,0.00,,---,0.00,VWS V12.08,2013-06-28 06:24:00,
2013-06-28 02:25:00,69.4,67.6,29.55,SW,220,7.0,14.0,94,0.00,,---,0.00,VWS V12.08,2013-06-28 06:25:00,
2013-06-28 02:28:00,69.5,67.7,29.55,SW,222,11.0,14.0,94,0.00,,---,0.00,VWS V12.08,2013-06-28 06:28:00,
2013-06-28 02:29:00,69.4,67.6,29.55,SSW,202,7.0,14.0,94,0.00,,---,0.00,VWS V12.08,2013-06-28 06:29:00,
2013-06-28 02:30:00,69.4,67.6,29.55,SW,223,11.0,14.0,94,0.00,,---,0.00,VWS V12.08,2013-06-28 06:30:00,
2013-06-28 02:33:00,69.3,67.5,29.55,SW,219,7.0,11.0,94,0.00,,---,0.00,VWS V12.08,2013-06-28 06:33:00,
2013-06-28 02:35:00,69.1,67.3,29.55,SW,219,6.0,11.0,94,0.00,,---,0.00,VWS V12.08,2013-06-28 06:35:00,
2013-06-28 02:38:00,68.6,66.8,29.54,SW,215,6.0,11.0,94,0.00,,---,0.00,VWS V12.08,2013-06-28 06:38:00,
2013-06-28 02:40:00,68.5,66.7,29.55,SW,232,6.0,11.0,94,0.00,,---,0.00,VWS V12.08,2013-06-28 06:40:00,
2013-06-28 02:41:00,68.4,66.6,29.54,SW,225,6.0,6.0,94,0.00,,---,0.00,VWS V12.08,2013-06-28 06:41:00,
2013-06-28 02:43:00,68.5,66.7,29.54,SW,220,6.0,11.0,94,0.00,,---,0.00,VWS V12.08,2013-06-28 06:43:00,
2013-06-28 02:45:00,68.6,67.1,29.54,SW,229,9.0,12.0,95,0.00,,---,0.00,VWS V12.08,2013-06-28 06:45:00,
2013-06-28 02:46:00,68.7,67.2,29.55,SW,229,8.0,12.0,95,0.00,,---,0.00,VWS V12.08,2013-06-28 06:46:00,
2013-06-28 02:48:00,68.8,67.0,29.55,SSW,192,11.0,13.0,94,0.00,,---,0.00,VWS V12.08,2013-06-28 06:48:00,
2013-06-28 02:50:00,68.8,67.3,29.55,SW,223,8.0,13.0,95,0.00,,---,0.00,VWS V12.08,2013-06-28 06:50:00,
2013-06-28 02:51:00,68.9,67.4,29.55,SW,229,7.0,10.0,95,0.00,,---,0.00,VWS V12.08,2013-06-28 06:51:00,
2013-06-28 02:53:00,69.0,67.5,29.55,WSW,240,6.0,13.0,95,0.00,,---,0.00,VWS V12.08,2013-06-28 06:53:00,
2013-06-28 02:55:00,69.1,67.6,29.55,SW,227,10.0,13.0,95,0.00,,---,0.00,VWS V12.08,2013-06-28 06:55:00,
2013-06-28 02:56:00,69.2,67.7,29.55,SW,221,9.0,13.0,95,0.00,,---,0.00,VWS V12.08,2013-06-28 06:56:00,
2013-06-28 02:59:00,69.3,67.8,29.55,SSW,207,10.0,13.0,95,0.00,,---,0.00,VWS V12.08,2013-06-28 06:59:00,
2013-06-28 03:00:00,69.4,67.9,29.54,SSW,213,7.0,13.0,95,0.00,,---,0.00,VWS V12.08,2013-06-28 07:00:00,
2013-06-28 03:01:00,69.4,67.9,29.54,SSW,211,7.0,13.0,95,0.00,,---,0.00,VWS V12.08,2013-06-28 07:01:00,
2013-06-28 03:02:00,69.3,67.8,29.54,SW,229,4.0,10.0,95,0.00,,---,0.00,VWS V12.08,2013-06-28 07:02:00,
2013-06-28 03:04:00,69.1,67.3,29.54,SW,221,7.0,10.0,94,0.00,,---,0.00,VWS V12.08,2013-06-28 07:04:00,
2013-06-28 03:05:00,68.9,67.1,29.54,SSW,212,5.0,12.0,94,0.00,,---,0.00,VWS V12.08,2013-06-28 07:05:00,
2013-06-28 03:06:00,68.9,67.1,29.54,SW,220,6.0,12.0,94,0.00,,---,0.00,VWS V12.08,2013-06-28 07:06:00,
2013-06-28 03:07:00,68.8,67.3,29.54,SW,214,7.0,13.0,95,0.00,,---,0.00,VWS V12.08,2013-06-28 07:07:00,
2013-06-28 03:09:00,68.8,67.3,29.54,SW,216,9.0,13.0,95,0.00,,---,0.00,VWS V12.08,2013-06-28 07:09:00,
2013-06-28 03:10:00,68.8,67.3,29.54,SW,219,6.0,13.0,95,0.00,,---,0.00,VWS V12.08,2013-06-28 07:10:00,
2013-06-28 03:11:00,68.8,67.3,29.54,SW,217,6.0,6.0,95,0.00,,---,0.00,VWS V12.08,2013-06-28 07:11:00,
2013-06-28 03:12:00,68.7,66.9,29.54,SW,234,6.0,10.0,94,0.00,,---,0.00,VWS V12.08,2013-06-28 07:12:00,
2013-06-28 03:14:00,68.7,67.2,29.54,SSW,210,5.0,12.0,95,0.00,,---,0.00,VWS V12.08,2013-06-28 07:14:00,
2013-06-28 03:15:00,68.8,67.3,29.54,SW,217,11.0,13.0,95,0.00,,---,0.00,VWS V12.08,2013-06-28 07:15:00,
2013-06-28 03:16:00,68.8,67.3,29.54,SW,218,7.0,13.0,95,0.00,,---,0.00,VWS V12.08,2013-06-28 07:16:00,
2013-06-28 03:17:00,68.9,67.4,29.54,SW,227,8.0,13.0,95,0.00,,---,0.00,VWS V12.08,2013-06-28 07:17:00,
2013-06-28 03:19:00,69.0,67.5,29.53,SSW,197,8.0,13.0,95,0.00,,---,0.00,VWS V12.08,2013-06-28 07:19:00,
2013-06-28 03:20:00,69.0,67.5,29.53,SW,221,7.0,13.0,95,0.00,,---,0.00,VWS V12.08,2013-06-28 07:20:00,
2013-06-28 03:21:00,69.0,67.5,29.53,SW,218,6.0,13.0,95,0.00,,---,0.00,VWS V12.08,2013-06-28 07:21:00,
2013-06-28 03:22:00,68.9,67.4,29.53,SSW,213,9.0,10.0,95,0.00,,---,0.00,VWS V12.08,2013-06-28 07:22:00,
2013-06-28 03:24:00,68.7,67.2,29.53,SSW,211,9.0,10.0,95,0.00,,---,0.00,VWS V12.08,2013-06-28 07:24:00,
2013-06-28 03:25:00,68.7,67.2,29.53,SSW,207,9.0,12.0,95,0.00,,---,0.00,VWS V12.08,2013-06-28 07:25:00,
2013-06-28 03:26:00,68.6,67.1,29.53,SSW,196,9.0,12.0,95,0.00,,---,0.00,VWS V12.08,2013-06-28 07:26:00,
2013-06-28 03:27:00,68.6,67.1,29.53,SW,215,7.0,12.0,95,0.00,,---,0.00,VWS V12.08,2013-06-28 07:27:00,
2013-06-28 03:30:00,68.5,67.0,29.53,SSW,213,9.0,13.0,95,0.00,,---,0.00,VWS V12.08,2013-06-28 07:30:00,
2013-06-28 03:31:00,68.5,67.0,29.53,SW,217,7.0,7.0,95,0.00,,---,0.00,VWS V12.08,2013-06-28 07:31:00,
2013-06-28 03:32:00,68.5,67.0,29.53,SSW,213,7.0,9.0,95,0.00,,---,0.00,VWS V12.08,2013-06-28 07:32:00,
2013-06-28 03:35:00,68.6,67.1,29.53,SSW,210,7.0,10.0,95,0.00,,---,0.00,VWS V12.08,2013-06-28 07:35:00,
2013-06-28 03:36:00,68.5,67.0,29.53,SW,225,5.0,11.0,95,0.00,,---,0.00,VWS V12.08,2013-06-28 07:36:00,
2013-06-28 03:37:00,68.5,67.0,29.53,South,190,9.0,11.0,95,0.00,,---,0.00,VWS V12.08,2013-06-28 07:37:00,
2013-06-28 03:40:00,68.5,67.0,29.53,SW,221,7.0,11.0,95,0.00,,---,0.00,VWS V12.08,2013-06-28 07:40:00,
2013-06-28 03:41:00,68.5,67.0,29.53,SSW,208,4.0,6.0,95,0.00,,---,0.00,VWS V12.08,2013-06-28 07:41:00,
2013-06-28 03:42:00,68.5,67.0,29.53,SSW,211,7.0,9.0,95,0.00,,---,0.00,VWS V12.08,2013-06-28 07:42:00,
2013-06-28 03:45:00,68.3,66.8,29.53,SW,220,5.0,9.0,95,0.00,,---,0.00,VWS V12.08,2013-06-28 07:45:00,
2013-06-28 03:46:00,68.3,66.8,29.53,SSW,209,7.0,10.0,95,0.00,,---,0.00,VWS V12.08,2013-06-28 07:46:00,
2013-06-28 03:47:00,68.2,66.7,29.53,SSW,201,7.0,10.0,95,0.00,,---,0.00,VWS V12.08,2013-06-28 07:47:00,
2013-06-28 03:50:00,68.1,66.6,29.53,SSW,212,7.0,10.0,95,0.00,,---,0.00,VWS V12.08,2013-06-28 07:50:00,
2013-06-28 03:51:00,68.0,66.5,29.53,SSW,212,7.0,10.0,95,0.00,,---,0.00,VWS V12.08,2013-06-28 07:51:00,
2013-06-28 03:52:00,67.9,66.4,29.53,SSW,208,6.0,10.0,95,0.00,,---,0.00,VWS V12.08,2013-06-28 07:52:00,
2013-06-28 03:55:00,67.9,66.4,29.53,SSW,208,5.0,10.0,95,0.00,,---,0.00,VWS V12.08,2013-06-28 07:55:00,
2013-06-28 03:56:00,67.9,66.4,29.53,SSW,202,7.0,10.0,95,0.00,,---,0.00,VWS V12.08,2013-06-28 07:56:00,
2013-06-28 03:57:00,68.0,66.5,29.53,WSW,242,9.0,10.0,95,0.00,,---,0.00,VWS V12.08,2013-06-28 07:57:00,
2013-06-28 04:00:00,68.1,66.6,29.53,SSW,201,5.0,10.0,95,0.00,,---,0.00,VWS V12.08,2013-06-28 08:00:00,
2013-06-28 04:01:00,68.1,66.6,29.53,SW,217,7.0,10.0,95,0.00,,---,0.00,VWS V12.08,2013-06-28 08:01:00,
2013-06-28 04:02:00,68.3,67.1,29.53,WSW,237,7.0,11.0,96,0.00,,---,0.00,VWS V12.08,2013-06-28 08:02:00,
2013-06-28 04:05:00,68.5,67.3,29.53,SW,232,10.0,11.0,96,0.00,,---,0.00,VWS V12.08,2013-06-28 08:05:00,
2013-06-28 04:06:00,68.5,67.3,29.53,SW,221,10.0,11.0,96,0.00,,---,0.00,VWS V12.08,2013-06-28 08:06:00,
2013-06-28 04:07:00,68.5,67.0,29.53,SW,225,7.0,11.0,95,0.00,,---,0.00,VWS V12.08,2013-06-28 08:07:00,
2013-06-28 04:11:00,68.5,67.0,29.53,SW,221,10.0,10.0,95,0.00,,---,0.00,VWS V12.08,2013-06-28 08:11:00,
2013-06-28 04:12:00,68.5,67.0,29.53,SSW,211,4.0,11.0,95,0.00,,---,0.00,VWS V12.08,2013-06-28 08:12:00,
2013-06-28 04:13:00,68.6,67.1,29.53,SW,216,8.0,11.0,95,0.00,,---,0.00,VWS V12.08,2013-06-28 08:13:00,
2013-06-28 04:16:00,68.5,67.0,29.53,SW,227,7.0,11.0,95,0.00,,---,0.00,VWS V12.08,2013-06-28 08:16:00,
2013-06-28 04:17:00,68.5,67.0,29.53,SSW,209,7.0,11.0,95,0.00,,---,0.00,VWS V12.08,2013-06-28 08:17:00,
2013-06-28 04:18:00,68.5,67.0,29.53,SSW,211,7.0,11.0,95,0.00,,---,0.00,VWS V12.08,2013-06-28 08:18:00,
2013-06-28 04:21:00,68.5,67.0,29.53,SW,216,11.0,11.0,95,0.00,,---,0.00,VWS V12.08,2013-06-28 08:21:00,
2013-06-28 04:22:00,68.6,67.1,29.53,SSW,193,9.0,12.0,95,0.00,,---,0.00,VWS V12.08,2013-06-28 08:22:00,
2013-06-28 04:23:00,68.7,67.5,29.53,SW,220,7.0,12.0,96,0.00,,---,0.00,VWS V12.08,2013-06-28 08:23:00,
2013-06-28 04:26:00,68.8,67.3,29.53,SW,225,7.0,12.0,95,0.00,,---,0.00,VWS V12.08,2013-06-28 08:26:00,
2013-06-28 04:27:00,68.7,67.2,29.53,SW,231,6.0,12.0,95,0.00,,---,0.00,VWS V12.08,2013-06-28 08:27:00,
2013-06-28 04:28:00,68.7,67.2,29.53,SW,218,10.0,12.0,95,0.00,,---,0.00,VWS V12.08,2013-06-28 08:28:00,
2013-06-28 04:31:00,68.8,67.3,29.53,WSW,238,6.0,6.0,95,0.00,,---,0.00,VWS V12.08,2013-06-28 08:31:00,
2013-06-28 04:32:00,68.8,67.3,29.53,SW,219,10.0,11.0,95,0.00,,---,0.00,VWS V12.08,2013-06-28 08:32:00,
2013-06-28 04:33:00,68.9,67.7,29.52,SW,218,6.0,12.0,96,0.00,,---,0.00,VWS V12.08,2013-06-28 08:33:00,
2013-06-28 04:36:00,69.0,67.8,29.52,SW,227,11.0,13.0,96,0.00,,---,0.00,VWS V12.08,2013-06-28 08:36:00,
2013-06-28 04:37:00,68.8,67.3,29.52,SW,229,10.0,13.0,95,0.00,,---,0.00,VWS V12.08,2013-06-28 08:37:00,
2013-06-28 04:38:00,68.8,67.3,29.52,SSW,212,8.0,13.0,95,0.00,,---,0.00,VWS V12.08,2013-06-28 08:38:00,
2013-06-28 04:39:00,68.8,67.3,29.52,SW,222,6.0,13.0,95,0.00,,---,0.00,VWS V12.08,2013-06-28 08:39:00,
2013-06-28 04:41:00,68.8,67.3,29.52,SW,217,10.0,10.0,95,0.00,,---,0.00,VWS V12.08,2013-06-28 08:41:00,
2013-06-28 04:43:00,68.8,67.3,29.52,SW,219,8.0,12.0,95,0.00,,---,0.00,VWS V12.08,2013-06-28 08:43:00,
2013-06-28 04:44:00,68.8,67.3,29.52,SW,223,9.0,13.0,95,0.00,,---,0.00,VWS V12.08,2013-06-28 08:44:00,
2013-06-28 04:46:00,68.8,67.6,29.52,SSW,207,13.0,15.0,96,0.00,,---,0.00,VWS V12.08,2013-06-28 08:46:00,
2013-06-28 04:48:00,68.9,67.7,29.52,SSW,213,13.0,15.0,96,0.00,,---,0.00,VWS V12.08,2013-06-28 08:48:00,
2013-06-28 04:49:00,68.9,67.7,29.52,WSW,243,12.0,15.0,96,0.00,,---,0.00,VWS V12.08,2013-06-28 08:49:00,
2013-06-28 04:51:00,68.9,67.7,29.52,SSW,213,8.0,9.0,96,0.00,,---,0.00,VWS V12.08,2013-06-28 08:51:00,
2013-06-28 04:53:00,68.9,67.7,29.52,SSW,211,11.0,13.0,96,0.00,,---,0.00,VWS V12.08,2013-06-28 08:53:00,
2013-06-28 04:54:00,68.9,67.7,29.52,SW,232,12.0,13.0,96,0.00,,---,0.00,VWS V12.08,2013-06-28 08:54:00,
2013-06-28 04:57:00,68.8,67.6,29.52,SSW,210,7.0,13.0,96,0.00,,---,0.00,VWS V12.08,2013-06-28 08:57:00,
2013-06-28 04:58:00,68.7,67.2,29.52,SW,223,6.0,13.0,95,0.00,,---,0.00,VWS V12.08,2013-06-28 08:58:00,
2013-06-28 04:59:00,68.6,67.1,29.52,South,184,7.0,13.0,95,0.00,,---,0.00,VWS V12.08,2013-06-28 08:59:00,
2013-06-28 05:02:00,68.5,67.0,29.52,SW,223,7.0,11.0,95,0.00,,---,0.00,VWS V12.08,2013-06-28 09:02:00,
2013-06-28 05:03:00,68.5,67.3,29.52,SW,215,8.0,12.0,96,0.00,,---,0.00,VWS V12.08,2013-06-28 09:03:00,
2013-06-28 05:04:00,68.5,67.3,29.52,SSW,213,8.0,12.0,96,0.00,,---,0.00,VWS V12.08,2013-06-28 09:04:00,
2013-06-28 05:07:00,68.5,67.3,29.52,SW,232,6.0,13.0,96,0.00,,---,0.00,VWS V12.08,2013-06-28 09:07:00,
2013-06-28 05:08:00,68.5,67.3,29.52,SW,219,7.0,13.0,96,0.00,,---,0.00,VWS V12.08,2013-06-28 09:08:00,
2013-06-28 05:10:00,68.5,67.3,29.52,SW,216,8.0,13.0,96,0.00,,---,0.00,VWS V12.08,2013-06-28 09:10:00,
2013-06-28 05:12:00,68.4,67.2,29.52,SW,219,6.0,11.0,96,0.00,,---,0.00,VWS V12.08,2013-06-28 09:12:00,
2013-06-28 05:13:00,68.3,67.1,29.52,SSW,213,11.0,13.0,96,0.00,,---,0.00,VWS V12.08,2013-06-28 09:13:00,
2013-06-28 05:14:00,68.3,67.1,29.52,SW,217,11.0,13.0,96,0.00,,---,0.00,VWS V12.08,2013-06-28 09:14:00,
2013-06-28 05:15:00,68.2,67.0,29.52,SSW,207,11.0,13.0,96,0.00,,---,0.00,VWS V12.08,2013-06-28 09:15:00,
2013-06-28 05:17:00,68.1,66.9,29.52,SSW,204,6.0,13.0,96,0.00,,---,0.00,VWS V12.08,2013-06-28 09:17:00,
2013-06-28 05:18:00,68.1,66.9,29.52,South,190,11.0,13.0,96,0.00,,---,0.00,VWS V12.08,2013-06-28 09:18:00,
2013-06-28 05:19:00,68.2,67.0,29.52,SW,216,7.0,13.0,96,0.00,,---,0.00,VWS V12.08,2013-06-28 09:19:00,
2013-06-28 05:20:00,68.1,66.9,29.53,SW,229,14.0,14.0,96,0.00,,---,0.00,VWS V12.08,2013-06-28 09:20:00,
2013-06-28 05:23:00,68.2,67.0,29.53,SW,214,9.0,12.0,96,0.00,,---,0.00,VWS V12.08,2013-06-28 09:23:00,
2013-06-28 05:24:00,68.3,67.1,29.53,SW,229,13.0,13.0,96,0.00,,---,0.00,VWS V12.08,2013-06-28 09:24:00,
2013-06-28 05:25:00,68.4,67.2,29.53,SW,222,13.0,13.0,96,0.00,,---,0.00,VWS V12.08,2013-06-28 09:25:00,
2013-06-28 05:28:00,68.7,67.5,29.53,SW,222,13.0,14.0,96,0.00,,---,0.00,VWS V12.08,2013-06-28 09:28:00,
2013-06-28 05:29:00,68.8,67.6,29.53,SW,227,16.0,16.0,96,0.00,,---,0.00,VWS V12.08,2013-06-28 09:29:00,
2013-06-28 05:30:00,69.1,67.9,29.53,WSW,250,5.0,17.0,96,0.00,,---,0.00,VWS V12.08,2013-06-28 09:30:00,
2013-06-28 05:33:00,69.4,68.2,29.53,WSW,257,13.0,13.0,96,0.00,,---,0.00,VWS V12.08,2013-06-28 09:33:00,
2013-06-28 05:34:00,69.5,68.3,29.53,SW,216,7.0,13.0,96,0.00,,---,0.00,VWS V12.08,2013-06-28 09:34:00,
2013-06-28 05:36:00,69.7,68.5,29.53,SW,214,4.0,13.0,96,0.00,,---,0.00,VWS V12.08,2013-06-28 09:36:00,
2013-06-28 05:38:00,69.8,68.6,29.53,West,259,5.0,13.0,96,0.00,,---,0.00,VWS V12.08,2013-06-28 09:38:00,
2013-06-28 05:39:00,69.7,68.5,29.53,SSW,211,5.0,13.0,96,0.00,,---,0.00,VWS V12.08,2013-06-28 09:39:00,
2013-06-28 05:41:00,69.4,67.9,29.53,SSW,213,5.0,9.0,95,0.00,,---,0.00,VWS V12.08,2013-06-28 09:41:00,
2013-06-28 05:43:00,69.1,67.6,29.53,SSW,207,5.0,9.0,95,0.00,,---,0.00,VWS V12.08,2013-06-28 09:43:00,
2013-06-28 05:44:00,69.0,67.8,29.53,SW,217,7.0,9.0,96,0.00,,---,0.00,VWS V12.08,2013-06-28 09:44:00,
2013-06-28 05:46:00,69.0,67.8,29.52,SW,229,4.0,9.0,96,0.00,,---,0.00,VWS V12.08,2013-06-28 09:46:00,
2013-06-28 05:48:00,68.8,67.6,29.52,SW,229,4.0,9.0,96,0.00,,---,0.00,VWS V12.08,2013-06-28 09:48:00,
2013-06-28 05:49:00,68.8,67.3,29.52,SW,229,4.0,9.0,95,0.00,,---,0.00,VWS V12.08,2013-06-28 09:49:00,
2013-06-28 05:50:00,68.6,67.1,29.53,SW,229,4.0,9.0,95,0.00,,---,0.00,VWS V12.08,2013-06-28 09:50:00,
2013-06-28 05:51:00,68.5,67.0,29.53,SW,229,2.0,3.0,95,0.00,,---,0.00,VWS V12.08,2013-06-28 09:51:00,
2013-06-28 05:53:00,68.3,67.1,29.53,SW,229,2.0,4.0,96,0.00,,---,0.00,VWS V12.08,2013-06-28 09:53:00,
2013-06-28 05:54:00,68.2,67.0,29.53,SW,229,4.0,4.0,96,0.00,,---,0.00,VWS V12.08,2013-06-28 09:54:00,
2013-06-28 05:55:00,68.1,66.6,29.53,SW,229,5.0,5.0,95,0.00,,---,0.00,VWS V12.08,2013-06-28 09:55:00,
2013-06-28 05:56:00,68.0,66.5,29.53,SW,229,5.0,6.0,95,0.00,,---,0.00,VWS V12.08,2013-06-28 09:56:00,
2013-06-28 05:58:00,67.7,66.5,29.53,SW,226,6.0,7.0,96,0.00,,---,0.00,VWS V12.08,2013-06-28 09:58:00,
2013-06-28 05:59:00,67.7,66.5,29.53,SW,226,5.0,7.0,96,0.00,,---,0.00,VWS V12.08,2013-06-28 09:59:00,
2013-06-28 06:00:00,67.6,66.4,29.53,SSW,212,9.0,9.0,96,0.00,,---,0.00,VWS V12.08,2013-06-28 10:00:00,
2013-06-28 06:01:00,67.6,66.4,29.53,SSW,212,5.0,9.0,96,0.00,,---,0.00,VWS V12.08,2013-06-28 10:01:00,
2013-06-28 06:03:00,67.7,66.5,29.53,SSW,212,5.0,9.0,96,0.00,,---,0.00,VWS V12.08,2013-06-28 10:03:00,
2013-06-28 06:04:00,67.7,66.5,29.53,SSW,212,6.0,9.0,96,0.00,,---,0.00,VWS V12.08,2013-06-28 10:04:00,
2013-06-28 06:05:00,67.7,66.5,29.53,SSW,212,6.0,9.0,96,0.00,,---,0.00,VWS V12.08,2013-06-28 10:05:00,
2013-06-28 06:06:00,67.7,66.5,29.53,SSW,212,6.0,9.0,96,0.00,,---,0.00,VWS V12.08,2013-06-28 10:06:00,
2013-06-28 06:09:00,67.7,66.5,29.53,SSW,212,5.0,9.0,96,0.00,,---,0.00,VWS V12.08,2013-06-28 10:09:00,
2013-06-28 06:10:00,67.7,66.5,29.53,SSW,212,5.0,9.0,96,0.00,,---,0.00,VWS V12.08,2013-06-28 10:10:00,
2013-06-28 06:11:00,67.7,66.5,29.53,SSW,209,5.0,9.0,96,0.00,,---,0.00,VWS V12.08,2013-06-28 10:11:00,
2013-06-28 06:14:00,67.9,66.7,29.53,SSW,211,9.0,10.0,96,0.00,,---,0.00,VWS V12.08,2013-06-28 10:14:00,
2013-06-28 06:15:00,68.0,66.8,29.53,SW,220,6.0,10.0,96,0.00,,---,0.00,VWS V12.08,2013-06-28 10:15:00,
2013-06-28 06:17:00,68.2,67.0,29.53,SSW,207,7.0,10.0,96,0.00,,---,0.00,VWS V12.08,2013-06-28 10:17:00,
2013-06-28 06:19:00,68.3,67.1,29.53,SW,223,5.0,10.0,96,0.00,,---,0.00,VWS V12.08,2013-06-28 10:19:00,
2013-06-28 06:20:00,68.3,67.1,29.53,WSW,238,6.0,10.0,96,0.00,,---,0.00,VWS V12.08,2013-06-28 10:20:00,
2013-06-28 06:22:00,68.3,67.1,29.53,SW,231,4.0,7.0,96,0.00,,---,0.00,VWS V12.08,2013-06-28 10:22:00,
2013-06-28 06:24:00,68.4,67.2,29.53,SW,231,3.0,7.0,96,0.00,,---,0.00,VWS V12.08,2013-06-28 10:24:00,
2013-06-28 06:25:00,68.4,67.2,29.53,SW,231,4.0,7.0,96,0.00,,---,0.00,VWS V12.08,2013-06-28 10:25:00,
2013-06-28 06:27:00,68.1,66.9,29.53,SSW,207,6.0,9.0,96,0.00,,---,0.00,VWS V12.08,2013-06-28 10:27:00,
2013-06-28 06:29:00,67.9,66.7,29.53,SSW,207,5.0,9.0,96,0.00,,---,0.00,VWS V12.08,2013-06-28 10:29:00,
2013-06-28 06:30:00,67.9,66.7,29.53,SSW,207,9.0,9.0,96,0.00,,---,0.00,VWS V12.08,2013-06-28 10:30:00,
2013-06-28 06:32:00,67.9,66.7,29.53,SSW,202,6.0,9.0,96,0.00,,---,0.00,VWS V12.08,2013-06-28 10:32:00,
2013-06-28 06:34:00,68.0,66.8,29.54,SSW,202,7.0,9.0,96,0.00,,---,0.00,VWS V12.08,2013-06-28 10:34:00,
2013-06-28 06:35:00,68.0,66.8,29.54,SSW,202,8.0,9.0,96,0.00,,---,0.00,VWS V12.08,2013-06-28 10:35:00,
2013-06-28 06:37:00,68.0,66.8,29.54,SSW,208,9.0,10.0,96,0.00,,---,0.00,VWS V12.08,2013-06-28 10:37:00,
2013-06-28 06:39:00,68.1,66.9,29.54,SSW,213,6.0,10.0,96,0.00,,---,0.00,VWS V12.08,2013-06-28 10:39:00,
2013-06-28 06:40:00,68.1,66.9,29.54,SSW,213,4.0,10.0,96,0.00,,---,0.00,VWS V12.08,2013-06-28 10:40:00,
2013-06-28 06:42:00,68.1,66.9,29.54,SSW,211,6.0,9.0,96,0.00,,---,0.00,VWS V12.08,2013-06-28 10:42:00,
2013-06-28 06:45:00,68.2,67.0,29.54,SSW,211,3.0,9.0,96,0.00,,---,0.00,VWS V12.08,2013-06-28 10:45:00,
2013-06-28 06:48:00,68.4,67.2,29.54,SW,230,4.0,9.0,96,0.00,,---,0.00,VWS V12.08,2013-06-28 10:48:00,
2013-06-28 06:50:00,68.6,67.4,29.54,SW,215,4.0,9.0,96,0.00,,---,0.00,VWS V12.08,2013-06-28 10:50:00,
2013-06-28 06:53:00,68.7,67.5,29.54,SSW,209,5.0,9.0,96,0.00,,---,0.00,VWS V12.08,2013-06-28 10:53:00,
2013-06-28 06:55:00,68.8,67.6,29.54,SW,214,5.0,9.0,96,0.00,,---,0.00,VWS V12.08,2013-06-28 10:55:00,
2013-06-28 06:58:00,68.6,67.4,29.54,SSW,213,5.0,9.0,96,0.00,,---,0.00,VWS V12.08,2013-06-28 10:58:00,
2013-06-28 07:00:00,68.6,67.4,29.54,SSW,213,6.0,9.0,96,0.00,,---,0.00,VWS V12.08,2013-06-28 11:00:00,
2013-06-28 07:03:00,68.6,67.4,29.54,SSW,213,6.0,6.0,96,0.00,,---,0.00,VWS V12.08,2013-06-28 11:03:00,
2013-06-28 07:05:00,68.6,67.4,29.54,SSW,213,5.0,8.0,96,0.00,,---,0.00,VWS V12.08,2013-06-28 11:05:00,
2013-06-28 07:06:00,68.6,67.4,29.54,SSW,213,7.0,8.0,96,0.00,,---,0.00,VWS V12.08,2013-06-28 11:06:00,
2013-06-28 07:08:00,68.4,67.2,29.54,SSW,213,6.0,9.0,96,0.00,,---,0.00,VWS V12.08,2013-06-28 11:08:00,
2013-06-28 07:10:00,68.3,67.1,29.54,SSW,198,7.0,10.0,96,0.00,,---,0.00,VWS V12.08,2013-06-28 11:10:00,
2013-06-28 07:11:00,68.2,67.0,29.54,SSW,196,9.0,10.0,96,0.00,,---,0.00,VWS V12.08,2013-06-28 11:11:00,
2013-06-28 07:13:00,68.2,67.0,29.54,SSW,194,10.0,11.0,96,0.00,,---,0.00,VWS V12.08,2013-06-28 11:13:00,
2013-06-28 07:15:00,68.1,66.9,29.54,SSW,194,9.0,12.0,96,0.00,,---,0.00,VWS V12.08,2013-06-28 11:15:00,
2013-06-28 07:16:00,68.2,67.0,29.54,SSW,198,11.0,12.0,96,0.00,,---,0.00,VWS V12.08,2013-06-28 11:16:00,
2013-06-28 07:18:00,68.3,67.1,29.54,SSW,197,9.0,12.0,96,0.00,,---,0.00,VWS V12.08,2013-06-28 11:18:00,
2013-06-28 07:20:00,68.4,67.5,29.54,SSW,208,9.0,12.0,97,0.00,,---,0.00,VWS V12.08,2013-06-28 11:20:00,
2013-06-28 07:21:00,68.5,67.6,29.54,SSW,206,8.0,8.0,97,0.00,,---,0.00,VWS V12.08,2013-06-28 11:21:00,
2013-06-28 07:23:00,68.7,67.8,29.54,SSW,211,7.0,10.0,97,0.00,,---,0.00,VWS V12.08,2013-06-28 11:23:00,
2013-06-28 07:25:00,68.9,67.7,29.54,SSW,200,8.0,10.0,96,0.00,,---,0.00,VWS V12.08,2013-06-28 11:25:00,
2013-06-28 07:26:00,68.9,67.7,29.54,SSW,205,10.0,13.0,96,0.00,,---,0.00,VWS V12.08,2013-06-28 11:26:00,
2013-06-28 07:28:00,69.1,68.2,29.54,SSW,211,9.0,13.0,97,0.00,,---,0.00,VWS V12.08,2013-06-28 11:28:00,
2013-06-28 07:30:00,69.3,68.4,29.54,SSW,207,10.0,13.0,97,0.00,,---,0.00,VWS V12.08,2013-06-28 11:30:00,
2013-06-28 07:31:00,69.3,68.4,29.54,SSW,203,10.0,12.0,97,0.00,,---,0.00,VWS V12.08,2013-06-28 11:31:00,
2013-06-28 07:33:00,69.4,68.2,29.54,SSW,207,9.0,13.0,96,0.00,,---,0.00,VWS V12.08,2013-06-28 11:33:00,
2013-06-28 07:35:00,69.4,68.2,29.54,SSW,197,13.0,13.0,96,0.00,,---,0.00,VWS V12.08,2013-06-28 11:35:00,
2013-06-28 07:36:00,69.4,68.2,29.54,SSW,205,11.0,13.0,96,0.00,,---,0.00,VWS V12.08,2013-06-28 11:36:00,
2013-06-28 07:38:00,69.4,68.2,29.54,SSW,198,10.0,13.0,96,0.00,,---,0.00,VWS V12.08,2013-06-28 11:38:00,
2013-06-28 07:40:00,69.5,68.3,29.54,SSW,199,12.0,13.0,96,0.00,,---,0.00,VWS V12.08,2013-06-28 11:40:00,
2013-06-28 07:41:00,69.5,68.3,29.54,SSW,198,11.0,12.0,96,0.00,,---,0.00,VWS V12.08,2013-06-28 11:41:00,
2013-06-28 07:42:00,69.6,68.4,29.54,SSW,200,10.0,12.0,96,0.00,,---,0.00,VWS V12.08,2013-06-28 11:42:00,
2013-06-28 07:43:00,69.6,68.7,29.54,SSW,207,12.0,13.0,97,0.00,,---,0.00,VWS V12.08,2013-06-28 11:43:00,
2013-06-28 07:46:00,69.6,68.4,29.54,SSW,203,9.0,13.0,96,0.00,,---,0.00,VWS V12.08,2013-06-28 11:46:00,
2013-06-28 07:47:00,69.7,68.8,29.54,SSW,208,11.0,13.0,97,0.00,,---,0.00,VWS V12.08,2013-06-28 11:47:00,
2013-06-28 07:48:00,69.7,68.8,29.54,SSW,207,12.0,13.0,97,0.00,,---,0.00,VWS V12.08,2013-06-28 11:48:00,
2013-06-28 07:51:00,69.8,68.9,29.54,SSW,213,10.0,13.0,97,0.00,,---,0.00,VWS V12.08,2013-06-28 11:51:00,
2013-06-28 07:52:00,69.9,69.0,29.54,SSW,212,10.0,12.0,97,0.00,,---,0.00,VWS V12.08,2013-06-28 11:52:00,
2013-06-28 07:54:00,70.0,69.1,29.54,SSW,198,6.0,13.0,97,0.00,,---,0.00,VWS V12.08,2013-06-28 11:54:00,
2013-06-28 07:56:00,70.0,68.8,29.54,SSW,207,11.0,13.0,96,0.00,,---,0.00,VWS V12.08,2013-06-28 11:56:00,
2013-06-28 07:57:00,70.0,68.8,29.54,SSW,207,7.0,13.0,96,0.00,,---,0.00,VWS V12.08,2013-06-28 11:57:00,
2013-06-28 07:59:00,69.9,68.7,29.54,SSW,203,10.0,13.0,96,0.00,,---,0.00,VWS V12.08,2013-06-28 11:59:00,
2013-06-28 08:01:00,69.9,68.7,29.54,SSW,207,7.0,14.0,96,0.00,,---,0.00,VWS V12.08,2013-06-28 12:01:00,
2013-06-28 08:02:00,70.0,68.8,29.54,South,190,10.0,14.0,96,0.00,,---,0.00,VWS V12.08,2013-06-28 12:02:00,
2013-06-28 08:04:00,70.1,68.9,29.54,SSW,212,10.0,14.0,96,0.00,,---,0.00,VWS V12.08,2013-06-28 12:04:00,
2013-06-28 08:06:00,70.1,68.9,29.54,SSW,202,10.0,14.0,96,0.00,,---,0.00,VWS V12.08,2013-06-28 12:06:00,
2013-06-28 08:07:00,70.2,69.0,29.53,SSW,194,10.0,14.0,96,0.00,,---,0.00,VWS V12.08,2013-06-28 12:07:00,
2013-06-28 08:09:00,70.3,69.1,29.53,SW,215,11.0,14.0,96,0.00,,---,0.00,VWS V12.08,2013-06-28 12:09:00,
2013-06-28 08:11:00,70.4,69.2,29.53,SSW,200,9.0,14.0,96,0.00,,---,0.00,VWS V12.08,2013-06-28 12:11:00,
2013-06-28 08:12:00,70.4,69.2,29.53,SSW,213,10.0,14.0,96,0.00,,---,0.00,VWS V12.08,2013-06-28 12:12:00,
2013-06-28 08:15:00,70.6,69.4,29.53,SSW,196,12.0,14.0,96,0.00,,---,0.00,VWS V12.08,2013-06-28 12:15:00,
2013-06-28 08:16:00,70.6,69.4,29.53,SSW,209,12.0,14.0,96,0.00,,---,0.00,VWS V12.08,2013-06-28 12:16:00,
2013-06-28 08:17:00,70.6,69.4,29.53,SSW,206,11.0,14.0,96,0.00,,---,0.00,VWS V12.08,2013-06-28 12:17:00,
2013-06-28 08:20:00,70.7,69.5,29.53,SSW,211,12.0,14.0,96,0.00,,---,0.00,VWS V12.08,2013-06-28 12:20:00,
2013-06-28 08:21:00,70.8,69.6,29.53,SSW,201,12.0,12.0,96,0.00,,---,0.00,VWS V12.08,2013-06-28 12:21:00,
2013-06-28 08:22:00,70.8,69.6,29.53,SSW,213,12.0,13.0,96,0.00,,---,0.00,VWS V12.08,2013-06-28 12:22:00,
2013-06-28 08:25:00,71.0,69.8,29.53,SW,219,10.0,14.0,96,0.00,,---,0.00,VWS V12.08,2013-06-28 12:25:00,
2013-06-28 08:26:00,71.1,69.9,29.53,SSW,197,13.0,14.0,96,0.00,,---,0.00,VWS V12.08,2013-06-28 12:26:00,
2013-06-28 08:27:00,71.2,70.0,29.53,SW,217,12.0,15.0,96,0.00,,---,0.00,VWS V12.08,2013-06-28 12:27:00,
2013-06-28 08:31:00,71.4,70.2,29.53,SSW,203,11.0,15.0,96,0.00,,---,0.00,VWS V12.08,2013-06-28 12:31:00,
2013-06-28 08:32:00,71.4,70.2,29.53,SSW,207,9.0,13.0,96,0.00,,---,0.00,VWS V12.08,2013-06-28 12:32:00,
2013-06-28 08:33:00,71.4,70.2,29.53,SSW,212,9.0,13.0,96,0.00,,---,0.00,VWS V12.08,2013-06-28 12:33:00,
2013-06-28 08:36:00,71.6,70.4,29.52,SW,214,12.0,14.0,96,0.00,,---,0.00,VWS V12.08,2013-06-28 12:36:00,
2013-06-28 08:37:00,71.5,70.3,29.52,SSW,213,10.0,14.0,96,0.00,,---,0.00,VWS V12.08,2013-06-28 12:37:00,
2013-06-28 08:38:00,71.5,70.3,29.52,SSW,210,11.0,14.0,96,0.00,,---,0.00,VWS V12.08,2013-06-28 12:38:00,
2013-06-28 08:41:00,71.6,70.4,29.52,SSW,210,12.0,13.0,96,0.00,,---,0.00,VWS V12.08,2013-06-28 12:41:00,
2013-06-28 08:42:00,71.6,70.1,29.52,SSW,200,9.0,13.0,95,0.00,,---,0.00,VWS V12.08,2013-06-28 12:42:00,
2013-06-28 08:43:00,71.7,70.5,29.52,SSW,207,13.0,13.0,96,0.00,,---,0.00,VWS V12.08,2013-06-28 12:43:00,
2013-06-28 08:46:00,71.7,70.2,29.52,SSW,208,10.0,16.0,95,0.00,,---,0.00,VWS V12.08,2013-06-28 12:46:00,
2013-06-28 08:47:00,71.8,70.3,29.52,SSW,207,14.0,16.0,95,0.00,,---,0.00,VWS V12.08,2013-06-28 12:47:00,
2013-06-28 08:48:00,71.8,70.3,29.52,SSW,213,13.0,16.0,95,0.00,,---,0.00,VWS V12.08,2013-06-28 12:48:00,
2013-06-28 08:51:00,72.0,70.5,29.52,SSW,211,10.0,13.0,95,0.00,,---,0.00,VWS V12.08,2013-06-28 12:51:00,
2013-06-28 08:52:00,71.9,70.4,29.52,SSW,208,12.0,13.0,95,0.00,,---,0.00,VWS V12.08,2013-06-28 12:52:00,
2013-06-28 08:53:00,71.9,70.4,29.52,SSW,207,10.0,13.0,95,0.00,,---,0.00,VWS V12.08,2013-06-28 12:53:00,
2013-06-28 08:56:00,72.1,70.6,29.52,SSW,203,12.0,13.0,95,0.00,,---,0.00,VWS V12.08,2013-06-28 12:56:00,
2013-06-28 08:57:00,72.1,70.6,29.52,SSW,212,14.0,14.0,95,0.00,,---,0.00,VWS V12.08,2013-06-28 12:57:00,
2013-06-28 08:58:00,72.2,70.7,29.51,SSW,202,9.0,14.0,95,0.00,,---,0.00,VWS V12.08,2013-06-28 12:58:00,
2013-06-28 09:01:00,72.2,70.4,29.51,SSW,208,13.0,13.0,94,0.00,,---,0.00,VWS V12.08,2013-06-28 13:01:00,
2013-06-28 09:02:00,72.2,70.4,29.51,SSW,200,9.0,13.0,94,0.00,,---,0.00,VWS V12.08,2013-06-28 13:02:00,
2013-06-28 09:03:00,72.3,70.5,29.51,SSW,213,6.0,13.0,94,0.00,,---,0.00,VWS V12.08,2013-06-28 13:03:00,
2013-06-28 09:07:00,72.4,70.6,29.51,SSW,212,10.0,15.0,94,0.00,,---,0.00,VWS V12.08,2013-06-28 13:07:00,
2013-06-28 09:08:00,72.4,70.6,29.51,SSW,213,12.0,15.0,94,0.00,,---,0.00,VWS V12.08,2013-06-28 13:08:00,
2013-06-28 09:09:00,72.5,70.7,29.51,SW,223,9.0,15.0,94,0.00,,---,0.00,VWS V12.08,2013-06-28 13:09:00,
2013-06-28 09:12:00,72.5,70.4,29.51,SSW,211,13.0,13.0,93,0.00,,---,0.00,VWS V12.08,2013-06-28 13:12:00,
2013-06-28 09:13:00,72.6,70.5,29.51,SSW,206,11.0,13.0,93,0.00,,---,0.00,VWS V12.08,2013-06-28 13:13:00,
2013-06-28 09:14:00,72.6,70.5,29.51,SW,215,11.0,13.0,93,0.00,,---,0.00,VWS V12.08,2013-06-28 13:14:00,
2013-06-28 09:17:00,72.7,70.6,29.51,SW,236,8.0,14.0,93,0.00,,---,0.00,VWS V12.08,2013-06-28 13:17:00,
2013-06-28 09:18:00,72.6,70.5,29.51,SSW,209,10.0,14.0,93,0.00,,---,0.00,VWS V12.08,2013-06-28 13:18:00,
2013-06-28 09:19:00,72.6,70.5,29.51,SSW,208,11.0,15.0,93,0.00,,---,0.00,VWS V12.08,2013-06-28 13:19:00,
2013-06-28 09:22:00,72.9,70.8,29.51,SSW,211,13.0,15.0,93,0.00,,---,0.00,VWS V12.08,2013-06-28 13:22:00,
2013-06-28 09:23:00,72.8,70.3,29.51,SSW,210,11.0,15.0,92,0.00,,---,0.00,VWS V12.08,2013-06-28 13:23:00,
2013-06-28 09:24:00,72.8,70.3,29.51,SSW,198,11.0,15.0,92,0.00,,---,0.00,VWS V12.08,2013-06-28 13:24:00,
2013-06-28 09:27:00,72.9,70.4,29.50,SSW,205,13.0,15.0,92,0.00,,---,0.00,VWS V12.08,2013-06-28 13:27:00,
2013-06-28 09:28:00,73.0,70.5,29.51,SSW,200,10.0,15.0,92,0.00,,---,0.00,VWS V12.08,2013-06-28 13:28:00,
2013-06-28 09:29:00,73.0,70.5,29.51,SSW,206,10.0,15.0,92,0.00,,---,0.00,VWS V12.08,2013-06-28 13:29:00,
2013-06-28 09:32:00,73.2,70.7,29.51,SSW,198,11.0,13.0,92,0.00,,---,0.00,VWS V12.08,2013-06-28 13:32:00,
2013-06-28 09:33:00,73.3,70.8,29.51,SSW,203,12.0,15.0,92,0.00,,---,0.00,VWS V12.08,2013-06-28 13:33:00,
2013-06-28 09:34:00,73.3,70.8,29.51,SSW,209,12.0,15.0,92,0.00,,---,0.00,VWS V12.08,2013-06-28 13:34:00,
2013-06-28 09:37:00,73.6,71.1,29.50,SSW,202,11.0,15.0,92,0.00,,---,0.00,VWS V12.08,2013-06-28 13:37:00,
2013-06-28 09:38:00,73.6,71.1,29.50,SSW,201,6.0,15.0,92,0.00,,---,0.00,VWS V12.08,2013-06-28 13:38:00,
2013-06-28 09:39:00,73.6,70.8,29.50,SSW,212,12.0,15.0,91,0.00,,---,0.00,VWS V12.08,2013-06-28 13:39:00,
2013-06-28 09:42:00,73.6,70.8,29.51,SSW,205,12.0,14.0,91,0.00,,---,0.00,VWS V12.08,2013-06-28 13:42:00,
2013-06-28 09:43:00,73.6,70.8,29.51,SW,219,7.0,14.0,91,0.00,,---,0.00,VWS V12.08,2013-06-28 13:43:00,
2013-06-28 09:44:00,73.6,70.8,29.51,SSW,203,9.0,14.0,91,0.00,,---,0.00,VWS V12.08,2013-06-28 13:44:00,
2013-06-28 09:47:00,73.5,70.7,29.50,SSW,213,10.0,16.0,91,0.00,,---,0.00,VWS V12.08,2013-06-28 13:47:00,
2013-06-28 09:48:00,73.5,70.7,29.50,SSW,200,11.0,16.0,91,0.00,,---,0.00,VWS V12.08,2013-06-28 13:48:00,
2013-06-28 09:49:00,73.6,70.8,29.50,SW,225,12.0,16.0,91,0.00,,---,0.00,VWS V12.08,2013-06-28 13:49:00,
2013-06-28 09:50:00,73.5,70.7,29.50,SW,218,12.0,16.0,91,0.00,,---,0.00,VWS V12.08,2013-06-28 13:50:00,
2013-06-28 09:53:00,73.4,70.3,29.50,SW,227,5.0,14.0,90,0.00,,---,0.00,VWS V12.08,2013-06-28 13:53:00,
2013-06-28 09:54:00,73.4,70.3,29.50,SSW,206,12.0,14.0,90,0.00,,---,0.00,VWS V12.08,2013-06-28 13:54:00,
2013-06-28 09:55:00,73.4,70.3,29.50,SSW,209,12.0,14.0,90,0.00,,---,0.00,VWS V12.08,2013-06-28 13:55:00,
2013-06-28 09:58:00,73.4,70.3,29.51,SW,226,9.0,16.0,90,0.00,,---,0.00,VWS V12.08,2013-06-28 13:58:00,
2013-06-28 09:59:00,73.4,70.3,29.50,SSW,202,11.0,16.0,90,0.00,,---,0.00,VWS V12.08,2013-06-28 13:59:00,
2013-06-28 10:00:00,73.3,70.2,29.50,SW,221,11.0,16.0,90,0.00,,---,0.00,VWS V12.08,2013-06-28 14:00:00,
2013-06-28 10:03:00,73.5,70.4,29.50,SSW,207,11.0,15.0,90,0.00,,---,0.00,VWS V12.08,2013-06-28 14:03:00,
2013-06-28 10:04:00,73.7,70.6,29.50,SSW,207,13.0,15.0,90,0.00,,---,0.00,VWS V12.08,2013-06-28 14:04:00,
2013-06-28 10:05:00,73.8,70.7,29.50,SSW,209,13.0,17.0,90,0.00,,---,0.00,VWS V12.08,2013-06-28 14:05:00,
2013-06-28 10:08:00,73.9,70.5,29.50,SSW,205,12.0,17.0,89,0.00,,---,0.00,VWS V12.08,2013-06-28 14:08:00,
2013-06-28 10:09:00,74.0,70.6,29.50,SSW,202,6.0,17.0,89,0.00,,---,0.00,VWS V12.08,2013-06-28 14:09:00,
2013-06-28 10:10:00,74.1,70.7,29.50,SSW,204,12.0,17.0,89,0.00,,---,0.00,VWS V12.08,2013-06-28 14:10:00,
2013-06-28 10:13:00,74.4,70.9,29.50,SW,215,9.0,15.0,89,0.00,,---,0.00,VWS V12.08,2013-06-28 14:13:00,
2013-06-28 10:14:00,74.4,70.9,29.50,SW,219,10.0,15.0,89,0.00,,---,0.00,VWS V12.08,2013-06-28 14:14:00,
2013-06-28 10:15:00,74.7,71.2,29.50,SSW,196,12.0,17.0,89,0.00,,---,0.00,VWS V12.08,2013-06-28 14:15:00,
2013-06-28 10:18:00,75.0,71.2,29.51,SW,215,11.0,19.0,88,0.00,,---,0.00,VWS V12.08,2013-06-28 14:18:00,
2013-06-28 10:19:00,75.0,71.2,29.51,SW,236,15.0,19.0,88,0.00,,---,0.00,VWS V12.08,2013-06-28 14:19:00,
2013-06-28 10:20:00,75.0,71.2,29.51,SSW,200,11.0,19.0,88,0.00,,---,0.00,VWS V12.08,2013-06-28 14:20:00,
2013-06-28 10:23:00,75.1,71.3,29.51,SSW,210,10.0,13.0,88,0.00,,---,0.00,VWS V12.08,2013-06-28 14:23:00,
2013-06-28 10:24:00,75.1,71.3,29.51,SSW,196,11.0,14.0,88,0.00,,---,0.00,VWS V12.08,2013-06-28 14:24:00,
2013-06-28 10:25:00,75.2,71.4,29.51,WSW,240,14.0,14.0,88,0.00,,---,0.00,VWS V12.08,2013-06-28 14:25:00,
2013-06-28 10:28:00,75.2,70.7,29.51,West,260,11.0,15.0,86,0.00,,---,0.00,VWS V12.08,2013-06-28 14:28:00,
2013-06-28 10:29:00,75.3,70.8,29.51,WSW,254,18.0,18.0,86,0.00,,---,0.00,VWS V12.08,2013-06-28 14:29:00,
2013-06-28 10:30:00,75.5,71.4,29.51,SW,230,5.0,18.0,87,0.00,,---,0.00,VWS V12.08,2013-06-28 14:30:00,
2013-06-28 10:34:00,77.4,73.6,29.51,NW,315,9.0,17.0,88,0.00,,---,0.00,VWS V12.08,2013-06-28 14:34:00,
2013-06-28 10:35:00,77.9,74.1,29.51,WSW,248,11.0,17.0,88,0.00,,---,0.00,VWS V12.08,2013-06-28 14:35:00,
2013-06-28 10:39:00,79.8,74.9,29.51,WSW,256,16.0,19.0,85,0.00,,---,0.00,VWS V12.08,2013-06-28 14:39:00,
2013-06-28 10:40:00,80.1,74.8,29.51,West,266,6.0,19.0,84,0.00,,---,0.00,VWS V12.08,2013-06-28 14:40:00,
2013-06-28 10:44:00,81.2,75.2,29.50,WNW,303,7.0,22.0,82,0.00,,---,0.00,VWS V12.08,2013-06-28 14:44:00,
2013-06-28 10:45:00,81.4,75.4,29.50,West,261,9.0,22.0,82,0.00,,---,0.00,VWS V12.08,2013-06-28 14:45:00,
2013-06-28 10:49:00,82.4,74.9,29.50,WSW,250,6.0,22.0,78,0.00,,---,0.00,VWS V12.08,2013-06-28 14:49:00,
2013-06-28 10:50:00,82.5,74.9,29.50,WSW,248,12.0,22.0,78,0.00,,---,0.00,VWS V12.08,2013-06-28 14:50:00,
2013-06-28 10:54:00,83.2,74.8,29.51,West,267,6.0,21.0,76,0.00,,---,0.00,VWS V12.08,2013-06-28 14:54:00,
2013-06-28 10:55:00,83.2,74.8,29.51,WSW,244,11.0,21.0,76,0.00,,---,0.00,VWS V12.08,2013-06-28 14:55:00,
2013-06-28 11:00:00,83.8,74.6,29.51,WSW,245,13.0,21.0,74,0.00,,---,0.00,VWS V12.08,2013-06-28 15:00:00,
2013-06-28 11:05:00,82.3,72.0,29.52,SSW,211,9.0,14.0,71,0.00,,---,0.00,VWS V12.08,2013-06-28 15:05:00,
2013-06-28 11:10:00,79.2,70.2,29.52,SW,215,10.0,14.0,74,0.00,,---,0.00,VWS V12.08,2013-06-28 15:10:00,
2013-06-28 11:15:00,78.0,70.6,29.52,SSW,198,11.0,14.0,78,0.00,,---,0.00,VWS V12.08,2013-06-28 15:15:00,
2013-06-28 11:16:00,78.0,70.6,29.52,SSW,195,12.0,14.0,78,0.00,,---,0.00,VWS V12.08,2013-06-28 15:16:00,
2013-06-28 11:20:00,77.5,70.5,29.51,SSW,213,15.0,21.0,79,0.00,,---,0.00,VWS V12.08,2013-06-28 15:20:00,
2013-06-28 11:21:00,77.5,70.5,29.51,SSW,195,10.0,21.0,79,0.00,,---,0.00,VWS V12.08,2013-06-28 15:21:00,
2013-06-28 11:25:00,77.5,70.5,29.52,SSW,211,10.0,14.0,79,0.00,,---,0.00,VWS V12.08,2013-06-28 15:25:00,
2013-06-28 11:26:00,77.4,70.4,29.52,SSW,213,10.0,14.0,79,0.00,,---,0.00,VWS V12.08,2013-06-28 15:26:00,
2013-06-28 11:30:00,77.1,70.1,29.52,SW,215,12.0,15.0,79,0.00,,---,0.00,VWS V12.08,2013-06-28 15:30:00,
2013-06-28 11:31:00,77.0,70.0,29.52,SSW,205,10.0,15.0,79,0.00,,---,0.00,VWS V12.08,2013-06-28 15:31:00,
2013-06-28 11:35:00,76.8,70.2,29.52,SW,218,8.0,14.0,80,0.00,,---,0.00,VWS V12.08,2013-06-28 15:35:00,
2013-06-28 11:36:00,76.8,70.2,29.52,SW,217,10.0,14.0,80,0.00,,---,0.00,VWS V12.08,2013-06-28 15:36:00,
2013-06-28 11:40:00,76.8,70.2,29.52,SSW,208,13.0,15.0,80,0.00,,---,0.00,VWS V12.08,2013-06-28 15:40:00,
2013-06-28 11:41:00,76.9,70.3,29.53,SSW,203,13.0,13.0,80,0.00,,---,0.00,VWS V12.08,2013-06-28 15:41:00,
2013-06-28 11:42:00,77.0,70.7,29.53,SW,223,11.0,14.0,81,0.00,,---,0.00,VWS V12.08,2013-06-28 15:42:00,
2013-06-28 11:45:00,77.0,70.4,29.53,SW,224,7.0,15.0,80,0.00,,---,0.00,VWS V12.08,2013-06-28 15:45:00,
2013-06-28 11:46:00,77.0,70.4,29.53,SSW,212,11.0,15.0,80,0.00,,---,0.00,VWS V12.08,2013-06-28 15:46:00,
2013-06-28 11:47:00,76.9,70.3,29.53,SSW,213,13.0,15.0,80,0.00,,---,0.00,VWS V12.08,2013-06-28 15:47:00,
2013-06-28 11:50:00,77.0,70.4,29.53,SSW,196,13.0,15.0,80,0.00,,---,0.00,VWS V12.08,2013-06-28 15:50:00,
2013-06-28 11:51:00,77.1,70.5,29.53,SW,217,14.0,15.0,80,0.00,,---,0.00,VWS V12.08,2013-06-28 15:51:00,
2013-06-28 11:52:00,77.1,70.5,29.53,SW,216,14.0,15.0,80,0.00,,---,0.00,VWS V12.08,2013-06-28 15:52:00,
2013-06-28 11:55:00,76.9,70.3,29.53,SSW,203,13.0,15.0,80,0.00,,---,0.00,VWS V12.08,2013-06-28 15:55:00,
2013-06-28 11:56:00,76.9,70.3,29.53,SW,215,10.0,15.0,80,0.00,,---,0.00,VWS V12.08,2013-06-28 15:56:00,
2013-06-28 11:57:00,76.9,70.3,29.53,SW,235,9.0,15.0,80,0.00,,---,0.00,VWS V12.08,2013-06-28 15:57:00,
2013-06-28 12:01:00,76.7,70.1,29.53,SSW,213,11.0,15.0,80,0.00,,---,0.00,VWS V12.08,2013-06-28 16:01:00,
2013-06-28 12:02:00,76.6,70.0,29.53,SSW,207,11.0,14.0,80,0.00,,---,0.00,VWS V12.08,2013-06-28 16:02:00,
2013-06-28 12:06:00,76.8,70.5,29.53,SW,219,11.0,15.0,81,0.00,,---,0.00,VWS V12.08,2013-06-28 16:06:00,
2013-06-28 12:07:00,76.9,70.3,29.53,SSW,207,10.0,15.0,80,0.00,,---,0.00,VWS V12.08,2013-06-28 16:07:00,
2013-06-28 12:08:00,77.0,70.7,29.53,SSW,213,10.0,15.0,81,0.00,,---,0.00,VWS V12.08,2013-06-28 16:08:00,
2013-06-28 12:11:00,77.1,70.5,29.53,SSW,212,12.0,15.0,80,0.00,,---,0.00,VWS V12.08,2013-06-28 16:11:00,
2013-06-28 12:12:00,77.2,70.6,29.53,SSW,203,10.0,15.0,80,0.00,,---,0.00,VWS V12.08,2013-06-28 16:12:00,
2013-06-28 12:13:00,77.1,70.5,29.53,SSW,204,11.0,15.0,80,0.00,,---,0.00,VWS V12.08,2013-06-28 16:13:00,
2013-06-28 12:16:00,77.0,70.4,29.53,SSW,213,12.0,16.0,80,0.00,,---,0.00,VWS V12.08,2013-06-28 16:16:00,
2013-06-28 12:17:00,77.0,70.4,29.53,SW,227,14.0,16.0,80,0.00,,---,0.00,VWS V12.08,2013-06-28 16:17:00,
2013-06-28 12:18:00,77.0,70.4,29.53,SSW,209,12.0,17.0,80,0.00,,---,0.00,VWS V12.08,2013-06-28 16:18:00,
2013-06-28 12:22:00,77.1,70.5,29.52,SSW,192,10.0,11.0,80,0.00,,---,0.00,VWS V12.08,2013-06-28 16:22:00,
2013-06-28 12:23:00,77.2,70.6,29.52,SW,214,11.0,11.0,80,0.00,,---,0.00,VWS V12.08,2013-06-28 16:23:00,
2013-06-28 12:27:00,77.3,70.7,29.52,SSW,204,11.0,13.0,80,0.00,,---,0.00,VWS V12.08,2013-06-28 16:27:00,
2013-06-28 12:28:00,77.4,70.8,29.52,SSW,207,10.0,13.0,80,0.00,,---,0.00,VWS V12.08,2013-06-28 16:28:00,
2013-06-28 12:32:00,77.6,70.6,29.52,SSW,195,10.0,13.0,79,0.00,,---,0.00,VWS V12.08,2013-06-28 16:32:00,
2013-06-28 12:33:00,77.7,70.7,29.52,SSW,201,11.0,13.0,79,0.00,,---,0.00,VWS V12.08,2013-06-28 16:33:00,
2013-06-28 12:37:00,77.5,70.1,29.52,SSW,194,12.0,18.0,78,0.00,,---,0.00,VWS V12.08,2013-06-28 16:37:00,
2013-06-28 12:38:00,77.4,70.0,29.52,SSW,196,16.0,18.0,78,0.00,,---,0.00,VWS V12.08,2013-06-28 16:38:00,
2013-06-28 12:42:00,77.0,70.0,29.52,South,186,18.0,19.0,79,0.00,,---,0.00,VWS V12.08,2013-06-28 16:42:00,
2013-06-28 12:43:00,77.0,70.0,29.52,South,188,14.0,20.0,79,0.00,,---,0.00,VWS V12.08,2013-06-28 16:43:00,
2013-06-28 12:47:00,76.5,69.9,29.52,South,187,15.0,20.0,80,0.00,,---,0.00,VWS V12.08,2013-06-28 16:47:00,
2013-06-28 12:48:00,76.5,69.9,29.52,South,184,14.0,20.0,80,0.00,,---,0.00,VWS V12.08,2013-06-28 16:48:00,
2013-06-28 12:49:00,76.5,69.9,29.52,SSW,192,17.0,20.0,80,0.00,,---,0.00,VWS V12.08,2013-06-28 16:49:00,
2013-06-28 12:52:00,76.8,70.5,29.52,SSW,209,12.0,15.0,81,0.00,,---,0.00,VWS V12.08,2013-06-28 16:52:00,
2013-06-28 12:53:00,76.9,70.3,29.52,SSW,204,13.0,15.0,80,0.00,,---,0.00,VWS V12.08,2013-06-28 16:53:00,
2013-06-28 12:54:00,76.9,70.6,29.52,South,186,14.0,15.0,81,0.00,,---,0.00,VWS V12.08,2013-06-28 16:54:00,
2013-06-28 12:57:00,77.1,70.5,29.52,SSW,198,10.0,15.0,80,0.00,,---,0.00,VWS V12.08,2013-06-28 16:57:00,
2013-06-28 12:58:00,77.1,70.5,29.52,South,186,9.0,15.0,80,0.00,,---,0.00,VWS V12.08,2013-06-28 16:58:00,
2013-06-28 12:59:00,77.1,70.1,29.52,SSW,193,11.0,15.0,79,0.00,,---,0.00,VWS V12.08,2013-06-28 16:59:00,
2013-06-28 13:03:00,76.9,70.3,29.53,SSW,203,13.0,14.0,80,0.00,,---,0.00,VWS V12.08,2013-06-28 17:03:00,
2013-06-28 13:04:00,76.9,70.3,29.53,South,188,9.0,14.0,80,0.00,,---,0.00,VWS V12.08,2013-06-28 17:04:00,
2013-06-28 13:08:00,76.6,69.6,29.52,SSW,193,12.0,15.0,79,0.00,,---,0.00,VWS V12.08,2013-06-28 17:08:00,
2013-06-28 13:09:00,76.2,69.2,29.53,SW,215,11.0,15.0,79,0.00,,---,0.00,VWS V12.08,2013-06-28 17:09:00,
2013-06-28 13:13:00,75.6,69.0,29.52,SW,214,13.0,15.0,80,0.00,,---,0.00,VWS V12.08,2013-06-28 17:13:00,
2013-06-28 13:14:00,75.7,69.5,29.52,SSW,201,14.0,15.0,81,0.00,,---,0.00,VWS V12.08,2013-06-28 17:14:00,
2013-06-28 13:18:00,75.8,69.9,29.52,SSW,209,13.0,15.0,82,0.00,,---,0.00,VWS V12.08,2013-06-28 17:18:00,
2013-06-28 13:19:00,76.0,70.1,29.52,SSW,194,12.0,15.0,82,0.00,,---,0.00,VWS V12.08,2013-06-28 17:19:00,
2013-06-28 13:23:00,76.0,69.8,29.52,SSW,192,9.0,18.0,81,0.00,,---,0.00,VWS V12.08,2013-06-28 17:23:00,
2013-06-28 13:24:00,76.0,69.8,29.52,South,190,12.0,18.0,81,0.00,,---,0.00,VWS V12.08,2013-06-28 17:24:00,
2013-06-28 13:28:00,76.1,70.2,29.52,South,182,11.0,18.0,82,0.00,,---,0.00,VWS V12.08,2013-06-28 17:28:00,
2013-06-28 13:29:00,76.1,70.2,29.52,SSW,207,11.0,18.0,82,0.00,,---,0.00,VWS V12.08,2013-06-28 17:29:00,
2013-06-28 13:30:00,76.2,70.3,29.52,SSW,194,11.0,18.0,82,0.00,,---,0.00,VWS V12.08,2013-06-28 17:30:00,
2013-06-28 13:33:00,76.6,70.7,29.51,SSW,205,10.0,14.0,82,0.00,,---,0.00,VWS V12.08,2013-06-28 17:33:00,
2013-06-28 13:34:00,76.7,70.8,29.51,SSW,193,10.0,14.0,82,0.00,,---,0.00,VWS V12.08,2013-06-28 17:34:00,
2013-06-28 13:35:00,76.7,70.8,29.51,South,186,10.0,14.0,82,0.00,,---,0.00,VWS V12.08,2013-06-28 17:35:00,
2013-06-28 13:38:00,76.9,70.6,29.51,SSW,196,14.0,14.0,81,0.00,,---,0.00,VWS V12.08,2013-06-28 17:38:00,
2013-06-28 13:39:00,76.9,70.6,29.51,SSW,193,12.0,14.0,81,0.00,,---,0.00,VWS V12.08,2013-06-28 17:39:00,
2013-06-28 13:40:00,76.9,70.6,29.51,SSW,194,10.0,14.0,81,0.00,,---,0.00,VWS V12.08,2013-06-28 17:40:00,
2013-06-28 13:43:00,77.0,70.7,29.51,SSW,204,9.0,14.0,81,0.00,,---,0.00,VWS V12.08,2013-06-28 17:43:00,
2013-06-28 13:45:00,77.0,70.4,29.51,SSW,194,10.0,14.0,80,0.00,,---,0.00,VWS V12.08,2013-06-28 17:45:00,
2013-06-28 13:49:00,77.1,70.5,29.51,SSW,197,9.0,14.0,80,0.00,,---,0.00,VWS V12.08,2013-06-28 17:49:00,
2013-06-28 13:50:00,77.2,70.6,29.51,SSW,193,10.0,14.0,80,0.00,,---,0.00,VWS V12.08,2013-06-28 17:50:00,
2013-06-28 13:54:00,77.5,71.2,29.51,SSW,209,10.0,13.0,81,0.00,,---,0.00,VWS V12.08,2013-06-28 17:54:00,
2013-06-28 13:55:00,77.6,70.9,29.51,SSW,202,7.0,13.0,80,0.00,,---,0.00,VWS V12.08,2013-06-28 17:55:00,
2013-06-28 14:00:00,77.5,70.5,29.51,SSW,205,7.0,13.0,79,0.00,,---,0.00,VWS V12.08,2013-06-28 18:00:00,
2013-06-28 14:05:00,77.3,70.3,29.51,SSW,202,10.0,13.0,79,0.00,,---,0.00,VWS V12.08,2013-06-28 18:05:00,
2013-06-28 14:10:00,77.4,70.4,29.50,SSW,200,9.0,14.0,79,0.00,,---,0.00,VWS V12.08,2013-06-28 18:10:00,
2013-06-28 14:11:00,77.5,70.5,29.50,SSW,209,11.0,14.0,79,0.00,,---,0.00,VWS V12.08,2013-06-28 18:11:00,
2013-06-28 14:15:00,77.7,70.7,29.50,SW,217,14.0,14.0,79,0.00,,---,0.00,VWS V12.08,2013-06-28 18:15:00,
2013-06-28 14:16:00,77.6,70.6,29.50,SSW,206,10.0,14.0,79,0.00,,---,0.00,VWS V12.08,2013-06-28 18:16:00,
2013-06-28 14:20:00,77.5,70.8,29.50,SSW,205,11.0,15.0,80,0.00,,---,0.00,VWS V12.08,2013-06-28 18:20:00,
2013-06-28 14:21:00,77.5,70.8,29.50,SSW,213,8.0,15.0,80,0.00,,---,0.00,VWS V12.08,2013-06-28 18:21:00,
2013-06-28 14:25:00,77.4,70.8,29.50,SW,219,12.0,18.0,80,0.00,,---,0.00,VWS V12.08,2013-06-28 18:25:00,
2013-06-28 14:26:00,77.5,70.8,29.50,SSW,213,12.0,18.0,80,0.00,,---,0.00,VWS V12.08,2013-06-28 18:26:00,
2013-06-28 14:30:00,77.9,71.2,29.50,SSW,210,6.0,18.0,80,0.00,,---,0.00,VWS V12.08,2013-06-28 18:30:00,
2013-06-28 14:31:00,77.9,71.2,29.50,SSW,207,10.0,18.0,80,0.00,,---,0.00,VWS V12.08,2013-06-28 18:31:00,
2013-06-28 14:35:00,77.6,70.6,29.50,SSW,194,12.0,12.0,79,0.00,,---,0.00,VWS V12.08,2013-06-28 18:35:00,
2013-06-28 14:36:00,77.6,70.6,29.50,SSW,200,10.0,12.0,79,0.00,,---,0.00,VWS V12.08,2013-06-28 18:36:00,
2013-06-28 14:40:00,77.6,70.6,29.50,SSW,203,12.0,15.0,79,0.00,,---,0.00,VWS V12.08,2013-06-28 18:40:00,
2013-06-28 14:41:00,77.6,70.6,29.50,SSW,200,10.0,10.0,79,0.00,,---,0.00,VWS V12.08,2013-06-28 18:41:00,
2013-06-28 14:45:00,77.0,69.6,29.50,SSW,197,8.0,13.0,78,0.00,,---,0.00,VWS V12.08,2013-06-28 18:45:00,
2013-06-28 14:46:00,77.0,70.0,29.50,SSW,197,5.0,13.0,79,0.00,,---,0.00,VWS V12.08,2013-06-28 18:46:00,
2013-06-28 14:50:00,77.2,70.6,29.50,SSW,198,8.0,13.0,80,0.00,,---,0.00,VWS V12.08,2013-06-28 18:50:00,
2013-06-28 14:51:00,77.2,70.6,29.50,SSW,211,9.0,9.0,80,0.00,,---,0.00,VWS V12.08,2013-06-28 18:51:00,
2013-06-28 14:55:00,77.5,70.8,29.50,South,190,6.0,10.0,80,0.00,,---,0.00,VWS V12.08,2013-06-28 18:55:00,
2013-06-28 14:56:00,77.5,70.8,29.49,South,190,7.0,10.0,80,0.00,,---,0.00,VWS V12.08,2013-06-28 18:56:00,
2013-06-28 14:57:00,77.5,70.8,29.49,South,190,6.0,10.0,80,0.00,,---,0.00,VWS V12.08,2013-06-28 18:57:00,
2013-06-28 15:01:00,77.2,70.2,29.49,South,186,7.0,10.0,79,0.00,,---,0.00,VWS V12.08,2013-06-28 19:01:00,
2013-06-28 15:02:00,77.3,70.3,29.49,South,186,6.0,7.0,79,0.00,,---,0.00,VWS V12.08,2013-06-28 19:02:00,
2013-06-28 15:06:00,77.5,70.5,29.49,South,186,6.0,8.0,79,0.00,,---,0.00,VWS V12.08,2013-06-28 19:06:00,
2013-06-28 15:07:00,77.5,70.5,29.49,South,186,7.0,8.0,79,0.00,,---,0.00,VWS V12.08,2013-06-28 19:07:00,
2013-06-28 15:11:00,77.8,70.8,29.49,South,186,9.0,10.0,79,0.00,,---,0.00,VWS V12.08,2013-06-28 19:11:00,
2013-06-28 15:12:00,77.8,70.8,29.49,South,186,9.0,11.0,79,0.00,,---,0.00,VWS V12.08,2013-06-28 19:12:00,
2013-06-28 15:16:00,77.5,70.1,29.49,South,187,8.0,11.0,78,0.00,,---,0.00,VWS V12.08,2013-06-28 19:16:00,
2013-06-28 15:17:00,77.4,70.0,29.49,SSW,194,11.0,11.0,78,0.00,,---,0.00,VWS V12.08,2013-06-28 19:17:00,
2013-06-28 15:21:00,77.2,69.8,29.49,SSW,195,10.0,10.0,78,0.00,,---,0.00,VWS V12.08,2013-06-28 19:21:00,
2013-06-28 15:22:00,77.1,70.1,29.49,SSW,198,6.0,10.0,79,0.00,,---,0.00,VWS V12.08,2013-06-28 19:22:00,
2013-06-28 15:26:00,77.1,70.1,29.48,SSW,193,10.0,11.0,79,0.00,,---,0.00,VWS V12.08,2013-06-28 19:26:00,
2013-06-28 15:27:00,77.1,70.1,29.48,SSW,194,10.0,11.0,79,0.00,,---,0.00,VWS V12.08,2013-06-28 19:27:00,
2013-06-28 15:31:00,77.1,70.1,29.48,South,189,8.0,10.0,79,0.00,,---,0.00,VWS V12.08,2013-06-28 19:31:00,
2013-06-28 15:32:00,77.0,69.6,29.48,South,186,10.0,10.0,78,0.00,,---,0.00,VWS V12.08,2013-06-28 19:32:00,
2013-06-28 15:33:00,76.9,69.5,29.48,SSW,192,7.0,11.0,78,0.00,,---,0.00,VWS V12.08,2013-06-28 19:33:00,
2013-06-28 15:36:00,76.8,69.8,29.47,SSW,193,7.0,11.0,79,0.00,,---,0.00,VWS V12.08,2013-06-28 19:36:00,
2013-06-28 15:37:00,76.8,70.2,29.47,SSW,192,7.0,11.0,80,0.00,,---,0.00,VWS V12.08,2013-06-28 19:37:00,
2013-06-28 15:38:00,76.8,70.2,29.47,SSW,192,7.0,11.0,80,0.00,,---,0.00,VWS V12.08,2013-06-28 19:38:00,
2013-06-28 15:42:00,76.6,69.6,29.47,SSW,193,6.0,9.0,79,0.00,,---,0.00,VWS V12.08,2013-06-28 19:42:00,
2013-06-28 15:43:00,76.5,69.9,29.47,SSW,192,4.0,9.0,80,0.00,,---,0.00,VWS V12.08,2013-06-28 19:43:00,
2013-06-28 15:47:00,76.1,69.5,29.47,SSW,194,10.0,10.0,80,0.00,,---,0.00,VWS V12.08,2013-06-28 19:47:00,
2013-06-28 15:48:00,75.9,69.3,29.47,South,188,8.0,10.0,80,0.00,,---,0.00,VWS V12.08,2013-06-28 19:48:00,
2013-06-28 15:52:00,75.7,69.1,29.47,South,184,13.0,13.0,80,0.00,,---,0.00,VWS V12.08,2013-06-28 19:52:00,
2013-06-28 15:53:00,75.7,69.5,29.47,South,180,11.0,14.0,81,0.00,,---,0.00,VWS V12.08,2013-06-28 19:53:00,
2013-06-28 15:57:00,75.4,69.2,29.47,South,190,10.0,14.0,81,0.00,,---,0.00,VWS V12.08,2013-06-28 19:57:00,
2013-06-28 15:58:00,75.3,69.1,29.47,South,187,11.0,14.0,81,0.00,,---,0.00,VWS V12.08,2013-06-28 19:58:00,
2013-06-28 16:02:00,75.3,69.1,29.46,South,187,7.0,11.0,81,0.00,,---,0.00,VWS V12.08,2013-06-28 20:02:00,
2013-06-28 16:03:00,75.2,69.3,29.46,South,188,11.0,11.0,82,0.00,,---,0.00,VWS V12.08,2013-06-28 20:03:00,
2013-06-28 16:07:00,75.2,69.3,29.46,SSW,192,11.0,13.0,82,0.00,,---,0.00,VWS V12.08,2013-06-28 20:07:00,
2013-06-28 16:08:00,75.3,69.4,29.47,SSW,193,12.0,13.0,82,0.00,,---,0.00,VWS V12.08,2013-06-28 20:08:00,
2013-06-28 16:09:00,75.3,69.4,29.47,SSW,192,11.0,13.0,82,0.00,,---,0.00,VWS V12.08,2013-06-28 20:09:00,
2013-06-28 16:12:00,75.5,69.6,29.47,SSW,197,10.0,12.0,82,0.00,,---,0.00,VWS V12.08,2013-06-28 20:12:00,
2013-06-28 16:13:00,75.4,69.5,29.47,SSW,196,11.0,12.0,82,0.00,,---,0.00,VWS V12.08,2013-06-28 20:13:00,
2013-06-28 16:14:00,75.5,69.6,29.47,SSW,192,10.0,12.0,82,0.00,,---,0.00,VWS V12.08,2013-06-28 20:14:00,
2013-06-28 16:17:00,75.3,69.4,29.47,South,184,7.0,12.0,82,0.00,,---,0.00,VWS V12.08,2013-06-28 20:17:00,
2013-06-28 16:19:00,75.3,69.4,29.47,SSW,197,11.0,12.0,82,0.00,,---,0.00,VWS V12.08,2013-06-28 20:19:00,
2013-06-28 16:22:00,75.5,69.6,29.47,SSW,209,9.0,12.0,82,0.00,,---,0.00,VWS V12.08,2013-06-28 20:22:00,
2013-06-28 16:23:00,75.5,69.6,29.47,SW,215,10.0,12.0,82,0.00,,---,0.00,VWS V12.08,2013-06-28 20:23:00,
2013-06-28 16:24:00,75.6,69.7,29.47,SSW,197,11.0,12.0,82,0.00,,---,0.00,VWS V12.08,2013-06-28 20:24:00,
2013-06-28 16:27:00,75.5,69.6,29.47,SSW,202,8.0,13.0,82,0.00,,---,0.00,VWS V12.08,2013-06-28 20:27:00,
2013-06-28 16:28:00,75.5,69.6,29.47,SSW,196,9.0,13.0,82,0.00,,---,0.00,VWS V12.08,2013-06-28 20:28:00,
2013-06-28 16:29:00,75.5,69.6,29.47,SSW,205,9.0,13.0,82,0.00,,---,0.00,VWS V12.08,2013-06-28 20:29:00,
2013-06-28 16:32:00,75.4,69.5,29.47,SSW,207,7.0,10.0,82,0.00,,---,0.00,VWS V12.08,2013-06-28 20:32:00,
2013-06-28 16:33:00,75.3,69.4,29.47,SSW,200,9.0,12.0,82,0.00,,---,0.00,VWS V12.08,2013-06-28 20:33:00,
2013-06-28 16:34:00,75.3,69.4,29.47,SSW,195,7.0,12.0,82,0.00,,---,0.00,VWS V12.08,2013-06-28 20:34:00,
2013-06-28 16:37:00,75.3,69.4,29.47,SSW,207,10.0,12.0,82,0.00,,---,0.00,VWS V12.08,2013-06-28 20:37:00,
2013-06-28 16:38:00,75.3,69.4,29.47,SSW,205,10.0,12.0,82,0.00,,---,0.00,VWS V12.08,2013-06-28 20:38:00,
2013-06-28 16:39:00,75.2,69.3,29.47,SSW,201,9.0,12.0,82,0.00,,---,0.00,VWS V12.08,2013-06-28 20:39:00,
2013-06-28 16:43:00,75.1,69.2,29.48,SSW,210,9.0,12.0,82,0.00,,---,0.00,VWS V12.08,2013-06-28 20:43:00,
2013-06-28 16:44:00,75.0,69.1,29.48,SSW,193,12.0,12.0,82,0.00,,---,0.00,VWS V12.08,2013-06-28 20:44:00,
2013-06-28 16:48:00,74.9,69.4,29.47,SSW,200,9.0,12.0,83,0.00,,---,0.00,VWS V12.08,2013-06-28 20:48:00,
2013-06-28 16:49:00,74.9,69.4,29.48,SSW,200,10.0,12.0,83,0.00,,---,0.00,VWS V12.08,2013-06-28 20:49:00,
2013-06-28 16:53:00,74.6,69.1,29.47,SSW,197,12.0,14.0,83,0.00,,---,0.00,VWS V12.08,2013-06-28 20:53:00,
2013-06-28 16:54:00,74.5,69.0,29.48,SSW,211,11.0,14.0,83,0.00,,---,0.00,VWS V12.08,2013-06-28 20:54:00,
2013-06-28 16:58:00,74.4,68.9,29.47,SSW,198,10.0,14.0,83,0.00,,---,0.00,VWS V12.08,2013-06-28 20:58:00,
2013-06-28 16:59:00,74.4,68.9,29.47,SSW,210,10.0,14.0,83,0.00,,---,0.00,VWS V12.08,2013-06-28 20:59:00,
2013-06-28 17:00:00,74.3,68.8,29.47,SSW,198,11.0,14.0,83,0.00,,---,0.00,VWS V12.08,2013-06-28 21:00:00,
2013-06-28 17:03:00,74.3,69.2,29.47,SW,216,10.0,13.0,84,0.00,,---,0.00,VWS V12.08,2013-06-28 21:03:00,
2013-06-28 17:04:00,74.3,69.2,29.47,SW,216,10.0,15.0,84,0.00,,---,0.00,VWS V12.08,2013-06-28 21:04:00,
2013-06-28 17:05:00,74.3,69.2,29.47,SSW,198,11.0,15.0,84,0.00,,---,0.00,VWS V12.08,2013-06-28 21:05:00,
2013-06-28 17:08:00,74.1,69.0,29.47,SSW,200,9.0,15.0,84,0.00,,---,0.00,VWS V12.08,2013-06-28 21:08:00,
2013-06-28 17:09:00,74.0,68.9,29.47,SSW,209,10.0,15.0,84,0.00,,---,0.00,VWS V12.08,2013-06-28 21:09:00,
2013-06-28 17:10:00,73.9,68.8,29.47,SSW,210,8.0,15.0,84,0.00,,---,0.00,VWS V12.08,2013-06-28 21:10:00,
2013-06-28 17:13:00,73.7,68.6,29.47,SSW,201,11.0,11.0,84,0.00,,---,0.00,VWS V12.08,2013-06-28 21:13:00,
2013-06-28 17:14:00,73.7,68.6,29.47,SSW,208,10.0,13.0,84,0.00,,---,0.00,VWS V12.08,2013-06-28 21:14:00,
2013-06-28 17:15:00,73.7,68.6,29.47,SSW,203,9.0,13.0,84,0.00,,---,0.00,VWS V12.08,2013-06-28 21:15:00,
2013-06-28 17:18:00,73.5,68.4,29.47,SSW,212,9.0,13.0,84,0.00,,---,0.00,VWS V12.08,2013-06-28 21:18:00,
2013-06-28 17:19:00,73.5,68.4,29.47,SSW,207,6.0,13.0,84,0.00,,---,0.00,VWS V12.08,2013-06-28 21:19:00,
2013-06-28 17:20:00,73.5,68.4,29.47,SSW,208,5.0,13.0,84,0.00,,---,0.00,VWS V12.08,2013-06-28 21:20:00,
2013-06-28 17:23:00,73.3,68.5,29.47,SSW,200,5.0,10.0,85,0.00,,---,0.00,VWS V12.08,2013-06-28 21:23:00,
2013-06-28 17:24:00,73.3,68.5,29.47,SSW,207,8.0,10.0,85,0.00,,---,0.00,VWS V12.08,2013-06-28 21:24:00,
2013-06-28 17:25:00,73.3,68.5,29.47,SSW,213,6.0,10.0,85,0.00,,---,0.00,VWS V12.08,2013-06-28 21:25:00,
2013-06-28 17:28:00,73.3,68.5,29.47,SSW,207,7.0,11.0,85,0.00,,---,0.00,VWS V12.08,2013-06-28 21:28:00,
2013-06-28 17:29:00,73.3,68.5,29.47,SSW,210,6.0,11.0,85,0.00,,---,0.00,VWS V12.08,2013-06-28 21:29:00,
2013-06-28 17:30:00,73.2,68.4,29.47,SW,221,5.0,11.0,85,0.00,,---,0.00,VWS V12.08,2013-06-28 21:30:00,
2013-06-28 17:33:00,73.2,68.8,29.47,SW,230,8.0,10.0,86,0.00,,---,0.00,VWS V12.08,2013-06-28 21:33:00,
2013-06-28 17:34:00,73.2,68.8,29.47,SW,225,7.0,10.0,86,0.00,,---,0.00,VWS V12.08,2013-06-28 21:34:00,
2013-06-28 17:35:00,73.2,68.8,29.47,SW,223,7.0,12.0,86,0.00,,---,0.00,VWS V12.08,2013-06-28 21:35:00,
2013-06-28 17:39:00,73.3,69.2,29.47,SSW,209,6.0,12.0,87,0.00,,---,0.00,VWS V12.08,2013-06-28 21:39:00,
2013-06-28 17:40:00,73.3,68.9,29.47,SSW,205,7.0,12.0,86,0.00,,---,0.00,VWS V12.08,2013-06-28 21:40:00,
2013-06-28 17:41:00,73.3,68.9,29.47,SSW,213,7.0,12.0,86,0.00,,---,0.00,VWS V12.08,2013-06-28 21:41:00,
2013-06-28 17:44:00,73.1,68.7,29.47,SSW,200,8.0,11.0,86,0.00,,---,0.00,VWS V12.08,2013-06-28 21:44:00,
2013-06-28 17:45:00,73.1,68.7,29.47,SSW,213,11.0,13.0,86,0.00,,---,0.00,VWS V12.08,2013-06-28 21:45:00,
2013-06-28 17:46:00,73.1,68.7,29.47,SSW,205,11.0,13.0,86,0.00,,---,0.00,VWS V12.08,2013-06-28 21:46:00,
2013-06-28 17:49:00,73.2,69.1,29.47,SSW,201,5.0,13.0,87,0.00,,---,0.00,VWS V12.08,2013-06-28 21:49:00,
2013-06-28 17:50:00,73.2,69.1,29.47,SSW,210,5.0,13.0,87,0.00,,---,0.00,VWS V12.08,2013-06-28 21:50:00,
2013-06-28 17:51:00,73.2,69.1,29.47,SSW,194,11.0,13.0,87,0.00,,---,0.00,VWS V12.08,2013-06-28 21:51:00,
2013-06-28 17:54:00,73.4,69.3,29.46,SSW,199,7.0,11.0,87,0.00,,---,0.00,VWS V12.08,2013-06-28 21:54:00,
2013-06-28 17:55:00,73.4,69.3,29.46,SSW,202,12.0,12.0,87,0.00,,---,0.00,VWS V12.08,2013-06-28 21:55:00,
2013-06-28 17:56:00,73.4,69.3,29.46,SSW,200,10.0,12.0,87,0.00,,---,0.00,VWS V12.08,2013-06-28 21:56:00,
2013-06-28 17:59:00,73.2,69.1,29.46,SSW,193,11.0,12.0,87,0.00,,---,0.00,VWS V12.08,2013-06-28 21:59:00,
2013-06-28 18:00:00,73.1,69.0,29.46,SSW,192,9.0,12.0,87,0.00,,---,0.00,VWS V12.08,2013-06-28 22:00:00,
2013-06-28 18:01:00,73.1,68.7,29.46,SSW,192,12.0,12.0,86,0.00,,---,0.00,VWS V12.08,2013-06-28 22:01:00,
2013-06-28 18:04:00,72.6,68.2,29.46,South,185,11.0,13.0,86,0.00,,---,0.00,VWS V12.08,2013-06-28 22:04:00,
2013-06-28 18:05:00,72.5,68.1,29.46,South,186,11.0,13.0,86,0.00,,---,0.00,VWS V12.08,2013-06-28 22:05:00,
2013-06-28 18:06:00,72.3,67.9,29.46,South,186,10.0,13.0,86,0.00,,---,0.00,VWS V12.08,2013-06-28 22:06:00,
2013-06-28 18:09:00,71.7,67.3,29.47,SSW,193,6.0,13.0,86,0.00,,---,0.00,VWS V12.08,2013-06-28 22:09:00,
2013-06-28 18:10:00,71.6,67.2,29.47,SSW,193,9.0,13.0,86,0.00,,---,0.00,VWS V12.08,2013-06-28 22:10:00,
2013-06-28 18:11:00,71.4,67.0,29.47,SSW,195,6.0,7.0,86,0.00,,---,0.00,VWS V12.08,2013-06-28 22:11:00,
2013-06-28 18:14:00,71.2,67.1,29.46,SSW,194,6.0,10.0,87,0.00,,---,0.00,VWS V12.08,2013-06-28 22:14:00,
2013-06-28 18:15:00,71.1,67.0,29.47,SSW,194,4.0,10.0,87,0.00,,---,0.00,VWS V12.08,2013-06-28 22:15:00,
2013-06-28 18:16:00,71.1,67.0,29.47,SW,223,7.0,10.0,87,0.00,,---,0.00,VWS V12.08,2013-06-28 22:16:00,
2013-06-28 18:17:00,71.1,67.0,29.47,SW,223,4.0,10.0,87,0.00,,---,0.00,VWS V12.08,2013-06-28 22:17:00,
2013-06-28 18:19:00,71.2,67.5,29.47,SW,223,8.0,10.0,88,0.00,,---,0.00,VWS V12.08,2013-06-28 22:19:00,
2013-06-28 18:20:00,71.3,67.6,29.47,SW,223,4.0,10.0,88,0.00,,---,0.00,VWS V12.08,2013-06-28 22:20:00,
2013-06-28 18:22:00,71.6,67.9,29.47,SW,219,6.0,8.0,88,0.00,,---,0.00,VWS V12.08,2013-06-28 22:22:00,
2013-06-28 18:25:00,71.7,68.0,29.47,SSW,213,7.0,9.0,88,0.00,,---,0.00,VWS V12.08,2013-06-28 22:25:00,
2013-06-28 18:27:00,71.5,67.8,29.47,SSW,208,4.0,9.0,88,0.00,,---,0.00,VWS V12.08,2013-06-28 22:27:00,
2013-06-28 18:30:00,71.3,67.6,29.47,SSW,208,6.0,9.0,88,0.00,,---,0.00,VWS V12.08,2013-06-28 22:30:00,
2013-06-28 18:31:00,71.2,67.5,29.46,SSW,208,6.0,9.0,88,0.00,,---,0.00,VWS V12.08,2013-06-28 22:31:00,
2013-06-28 18:32:00,71.2,67.5,29.46,SSW,207,5.0,8.0,88,0.00,,---,0.00,VWS V12.08,2013-06-28 22:32:00,
2013-06-28 18:35:00,71.3,67.9,29.46,SSW,206,6.0,8.0,89,0.00,,---,0.00,VWS V12.08,2013-06-28 22:35:00,
2013-06-28 18:36:00,71.3,67.9,29.46,SW,215,6.0,8.0,89,0.00,,---,0.00,VWS V12.08,2013-06-28 22:36:00,
2013-06-28 18:37:00,71.3,67.9,29.47,SSW,213,5.0,8.0,89,0.00,,---,0.00,VWS V12.08,2013-06-28 22:37:00,
2013-06-28 18:40:00,71.5,68.1,29.47,SSW,200,11.0,13.0,89,0.00,,---,0.00,VWS V12.08,2013-06-28 22:40:00,
2013-06-28 18:41:00,71.5,68.1,29.47,SSW,196,12.0,13.0,89,0.00,,---,0.00,VWS V12.08,2013-06-28 22:41:00,
2013-06-28 18:42:00,71.5,68.1,29.47,SSW,195,10.0,12.0,89,0.00,,---,0.00,VWS V12.08,2013-06-28 22:42:00,
2013-06-28 18:46:00,71.5,68.1,29.47,SSW,211,10.0,12.0,89,0.00,,---,0.00,VWS V12.08,2013-06-28 22:46:00,
2013-06-28 18:47:00,71.6,68.2,29.48,SSW,206,9.0,12.0,89,0.00,,---,0.00,VWS V12.08,2013-06-28 22:47:00,
2013-06-28 18:51:00,71.8,68.7,29.48,SW,219,8.0,13.0,90,0.00,,---,0.00,VWS V12.08,2013-06-28 22:51:00,
2013-06-28 18:52:00,71.9,68.8,29.48,SSW,209,9.0,13.0,90,0.00,,---,0.00,VWS V12.08,2013-06-28 22:52:00,
2013-06-28 18:56:00,72.0,68.9,29.48,SSW,210,11.0,13.0,90,0.00,,---,0.00,VWS V12.08,2013-06-28 22:56:00,
2013-06-28 18:57:00,71.9,68.8,29.47,SSW,196,9.0,13.0,90,0.00,,---,0.00,VWS V12.08,2013-06-28 22:57:00,
2013-06-28 18:58:00,71.9,68.8,29.47,SSW,196,10.0,13.0,90,0.00,,---,0.00,VWS V12.08,2013-06-28 22:58:00,
2013-06-28 19:01:00,71.7,68.3,29.47,South,189,12.0,12.0,89,0.00,,---,0.00,VWS V12.08,2013-06-28 23:01:00,
2013-06-28 19:03:00,71.6,68.2,29.47,South,190,11.0,13.0,89,0.00,,---,0.00,VWS V12.08,2013-06-28 23:03:00,
2013-06-28 19:06:00,71.5,68.1,29.47,SSW,196,7.0,13.0,89,0.00,,---,0.00,VWS V12.08,2013-06-28 23:06:00,
2013-06-28 19:08:00,71.5,68.4,29.47,SSW,198,9.0,13.0,90,0.00,,---,0.00,VWS V12.08,2013-06-28 23:08:00,
2013-06-28 19:11:00,71.5,68.4,29.47,SSW,200,9.0,10.0,90,0.00,,---,0.00,VWS V12.08,2013-06-28 23:11:00,
2013-06-28 19:13:00,71.5,68.4,29.47,SSW,213,9.0,13.0,90,0.00,,---,0.00,VWS V12.08,2013-06-28 23:13:00,
2013-06-28 19:16:00,71.5,68.4,29.47,SSW,206,9.0,13.0,90,0.00,,---,0.00,VWS V12.08,2013-06-28 23:16:00,
2013-06-28 19:17:00,71.5,68.4,29.48,SW,219,9.0,13.0,90,0.00,,---,0.00,VWS V12.08,2013-06-28 23:17:00,
2013-06-28 19:18:00,71.6,68.5,29.48,SSW,213,10.0,13.0,90,0.00,,---,0.00,VWS V12.08,2013-06-28 23:18:00,
2013-06-28 19:21:00,71.8,68.7,29.48,SSW,211,9.0,10.0,90,0.00,,---,0.00,VWS V12.08,2013-06-28 23:21:00,
2013-06-28 19:22:00,71.8,68.7,29.48,SSW,211,6.0,10.0,90,0.00,,---,0.00,VWS V12.08,2013-06-28 23:22:00,
2013-06-28 19:23:00,71.9,68.8,29.47,SSW,203,9.0,12.0,90,0.00,,---,0.00,VWS V12.08,2013-06-28 23:23:00,
2013-06-28 19:26:00,72.0,68.9,29.47,SW,224,10.0,12.0,90,0.00,,---,0.00,VWS V12.08,2013-06-28 23:26:00,
2013-06-28 19:27:00,72.0,68.9,29.47,WSW,237,7.0,12.0,90,0.00,,---,0.00,VWS V12.08,2013-06-28 23:27:00,
2013-06-28 19:28:00,72.1,69.3,29.47,SSW,213,14.0,14.0,91,0.00,,---,0.00,VWS V12.08,2013-06-28 23:28:00,
2013-06-28 19:29:00,72.1,69.3,29.47,SW,230,9.0,14.0,91,0.00,,---,0.00,VWS V12.08,2013-06-28 23:29:00,
2013-06-28 19:31:00,72.2,69.4,29.47,SW,220,6.0,12.0,91,0.00,,---,0.00,VWS V12.08,2013-06-28 23:31:00,
2013-06-28 19:32:00,72.2,69.4,29.47,SW,220,6.0,12.0,91,0.00,,---,0.00,VWS V12.08,2013-06-28 23:32:00,
2013-06-28 19:33:00,72.2,69.4,29.47,SSW,207,11.0,13.0,91,0.00,,---,0.00,VWS V12.08,2013-06-28 23:33:00,
2013-06-28 19:34:00,72.2,69.4,29.47,SW,217,9.0,13.0,91,0.00,,---,0.00,VWS V12.08,2013-06-28 23:34:00,
2013-06-28 19:37:00,72.4,69.6,29.48,SW,222,5.0,14.0,91,0.00,,---,0.00,VWS V12.08,2013-06-28 23:37:00,
2013-06-28 19:38:00,72.6,69.8,29.48,SW,225,9.0,14.0,91,0.00,,---,0.00,VWS V12.08,2013-06-28 23:38:00,
2013-06-28 19:39:00,72.6,69.8,29.48,WSW,238,14.0,14.0,91,0.00,,---,0.00,VWS V12.08,2013-06-28 23:39:00,
2013-06-28 19:42:00,72.8,70.0,29.48,WSW,237,9.0,15.0,91,0.00,,---,0.00,VWS V12.08,2013-06-28 23:42:00,
2013-06-28 19:43:00,73.0,70.2,29.48,WSW,248,12.0,17.0,91,0.00,,---,0.00,VWS V12.08,2013-06-28 23:43:00,
2013-06-28 19:44:00,73.0,70.2,29.48,SW,223,12.0,17.0,91,0.00,,---,0.00,VWS V12.08,2013-06-28 23:44:00,
2013-06-28 19:47:00,73.2,70.4,29.48,WSW,242,13.0,17.0,91,0.00,,---,0.00,VWS V12.08,2013-06-28 23:47:00,
2013-06-28 19:48:00,73.3,70.5,29.48,SSW,213,15.0,17.0,91,0.00,,---,0.00,VWS V12.08,2013-06-28 23:48:00,
2013-06-28 19:49:00,73.4,70.6,29.48,SSW,207,13.0,18.0,91,0.00,,---,0.00,VWS V12.08,2013-06-28 23:49:00,
2013-06-28 19:52:00,73.7,70.9,29.48,SSW,211,5.0,11.0,91,0.00,,---,0.00,VWS V12.08,2013-06-28 23:52:00,
2013-06-28 19:53:00,73.7,70.9,29.48,WSW,249,10.0,11.0,91,0.00,,---,0.00,VWS V12.08,2013-06-28 23:53:00,
2013-06-28 19:54:00,73.8,71.0,29.48,SW,232,9.0,11.0,91,0.00,,---,0.00,VWS V12.08,2013-06-28 23:54:00,
2013-06-28 19:57:00,74.0,71.2,29.48,WSW,237,5.0,11.0,91,0.00,,---,0.00,VWS V12.08,2013-06-28 23:57:00,
2013-06-28 19:58:00,74.1,71.3,29.48,SW,236,3.0,11.0,91,0.00,,---,0.00,VWS V12.08,2013-06-28 23:58:00,
2013-06-28 19:59:00,74.2,71.4,29.48,West,274,4.0,11.0,91,0.00,,---,0.00,VWS V12.08,2013-06-28 23:59:00,
2013-06-28 20:02:00,74.4,71.6,29.49,NW,311,7.0,13.0,91,0.00,,---,0.00,VWS V12.08,2013-06-29 00:02:00,
2013-06-28 20:03:00,74.4,71.6,29.49,WNW,292,12.0,13.0,91,0.00,,---,0.00,VWS V12.08,2013-06-29 00:03:00,
2013-06-28 20:04:00,74.6,71.8,29.49,WNW,296,12.0,15.0,91,0.00,,---,0.00,VWS V12.08,2013-06-29 00:04:00,
2013-06-28 20:07:00,74.9,72.1,29.50,WNW,296,7.0,15.0,91,0.00,,---,0.00,VWS V12.08,2013-06-29 00:07:00,
2013-06-28 20:08:00,74.9,72.1,29.50,WNW,296,5.0,15.0,91,0.00,,---,0.00,VWS V12.08,2013-06-29 00:08:00,
2013-06-28 20:09:00,75.0,72.2,29.50,WNW,300,5.0,15.0,91,0.00,,---,0.00,VWS V12.08,2013-06-29 00:09:00,
2013-06-28 20:13:00,75.2,72.4,29.49,WNW,302,9.0,15.0,91,0.00,,---,0.00,VWS V12.08,2013-06-29 00:13:00,
2013-06-28 20:15:00,75.3,72.2,29.49,WNW,293,13.0,15.0,90,0.00,,---,0.00,VWS V12.08,2013-06-29 00:15:00,
2013-06-28 20:18:00,75.3,72.2,29.50,NNW,347,11.0,18.0,90,0.00,,---,0.00,VWS V12.08,2013-06-29 00:18:00,
2013-06-28 20:19:00,75.3,72.2,29.50,NNW,331,13.0,18.0,90,0.00,,---,0.00,VWS V12.08,2013-06-29 00:19:00,
2013-06-28 20:20:00,75.3,72.2,29.50,NNW,333,11.0,18.0,90,0.00,,---,0.00,VWS V12.08,2013-06-29 00:20:00,
2013-06-28 20:23:00,75.3,72.2,29.50,NNW,344,8.0,14.0,90,0.00,,---,0.00,VWS V12.08,2013-06-29 00:23:00,
2013-06-28 20:24:00,75.3,72.2,29.50,NNW,332,9.0,14.0,90,0.00,,---,0.00,VWS V12.08,2013-06-29 00:24:00,
2013-06-28 20:25:00,75.3,71.8,29.50,NW,314,14.0,16.0,89,0.00,,---,0.00,VWS V12.08,2013-06-29 00:25:00,
2013-06-28 20:28:00,75.3,71.8,29.49,NNW,336,10.0,16.0,89,0.00,,---,0.00,VWS V12.08,2013-06-29 00:28:00,
2013-06-28 20:29:00,75.3,71.8,29.49,NNW,340,9.0,16.0,89,0.00,,---,0.00,VWS V12.08,2013-06-29 00:29:00,
2013-06-28 20:30:00,75.3,71.8,29.49,NNW,347,12.0,16.0,89,0.00,,---,0.00,VWS V12.08,2013-06-29 00:30:00,
2013-06-28 20:33:00,75.2,71.7,29.50,North,355,5.0,12.0,89,0.00,,---,0.00,VWS V12.08,2013-06-29 00:33:00,
2013-06-28 20:34:00,75.2,71.7,29.50,NNW,343,10.0,12.0,89,0.00,,---,0.00,VWS V12.08,2013-06-29 00:34:00,
2013-06-28 20:35:00,75.2,71.7,29.49,North,5,7.0,12.0,89,0.00,,---,0.00,VWS V12.08,2013-06-29 00:35:00,
2013-06-28 20:38:00,75.0,71.2,29.49,North,5,10.0,12.0,88,0.00,,---,0.00,VWS V12.08,2013-06-29 00:38:00,
2013-06-28 20:39:00,75.1,71.3,29.49,North,5,5.0,12.0,88,0.00,,---,0.00,VWS V12.08,2013-06-29 00:39:00,
2013-06-28 20:40:00,75.0,71.2,29.49,NNW,342,12.0,14.0,88,0.00,,---,0.00,VWS V12.08,2013-06-29 00:40:00,
2013-06-28 20:43:00,74.9,71.1,29.49,NNE,13,8.0,12.0,88,0.00,,---,0.00,VWS V12.08,2013-06-29 00:43:00,
2013-06-28 20:44:00,74.9,71.1,29.49,North,355,5.0,12.0,88,0.00,,---,0.00,VWS V12.08,2013-06-29 00:44:00,
2013-06-28 20:45:00,74.9,71.1,29.49,NNW,344,10.0,13.0,88,0.00,,---,0.00,VWS V12.08,2013-06-29 00:45:00,
2013-06-28 20:48:00,74.9,71.1,29.50,NW,319,7.0,13.0,88,0.00,,---,0.00,VWS V12.08,2013-06-29 00:48:00,
2013-06-28 20:49:00,74.9,71.1,29.50,NW,319,3.0,13.0,88,0.00,,---,0.00,VWS V12.08,2013-06-29 00:49:00,
2013-06-28 20:50:00,74.9,71.1,29.51,NNW,327,7.0,13.0,88,0.00,,---,0.00,VWS V12.08,2013-06-29 00:50:00,
2013-06-28 20:53:00,74.9,71.1,29.51,NNW,327,3.0,5.0,88,0.00,,---,0.00,VWS V12.08,2013-06-29 00:53:00,
2013-06-28 20:54:00,74.9,71.1,29.51,NNW,327,2.0,5.0,88,0.00,,---,0.00,VWS V12.08,2013-06-29 00:54:00,
2013-06-28 20:55:00,74.9,71.1,29.52,NNW,327,4.0,5.0,88,0.00,,---,0.00,VWS V12.08,2013-06-29 00:55:00,
2013-06-28 20:56:00,74.9,71.1,29.52,NNW,327,3.0,5.0,88,0.00,,---,0.00,VWS V12.08,2013-06-29 00:56:00,
2013-06-28 20:58:00,74.9,71.1,29.51,NNW,328,2.0,6.0,88,0.00,,---,0.00,VWS V12.08,2013-06-29 00:58:00,
2013-06-28 20:59:00,74.9,71.1,29.51,NNW,328,4.0,6.0,88,0.00,,---,0.00,VWS V12.08,2013-06-29 00:59:00,
2013-06-28 21:00:00,74.9,71.1,29.51,North,5,6.0,6.0,88,0.00,,---,0.00,VWS V12.08,2013-06-29 01:00:00,
2013-06-28 21:01:00,74.9,71.1,29.51,North,5,6.0,8.0,88,0.00,,---,0.00,VWS V12.08,2013-06-29 01:01:00,
2013-06-28 21:03:00,74.9,71.1,29.51,North,5,6.0,8.0,88,0.00,,---,0.00,VWS V12.08,2013-06-29 01:03:00,
2013-06-28 21:04:00,74.9,71.1,29.51,North,5,6.0,8.0,88,0.00,,---,0.00,VWS V12.08,2013-06-29 01:04:00,
2013-06-28 21:05:00,74.9,71.1,29.51,North,5,4.0,8.0,88,0.00,,---,0.00,VWS V12.08,2013-06-29 01:05:00,
2013-06-28 21:06:00,74.9,71.1,29.51,North,5,3.0,8.0,88,0.00,,---,0.00,VWS V12.08,2013-06-29 01:06:00,
2013-06-28 21:08:00,74.9,71.1,29.51,North,5,2.0,8.0,88,0.00,,---,0.00,VWS V12.08,2013-06-29 01:08:00,
2013-06-28 21:09:00,74.9,71.1,29.51,North,5,2.0,8.0,88,0.00,,---,0.00,VWS V12.08,2013-06-29 01:09:00,
2013-06-28 21:10:00,74.9,71.1,29.51,North,5,2.0,8.0,88,0.00,,---,0.00,VWS V12.08,2013-06-29 01:10:00,
2013-06-28 21:11:00,74.9,71.1,29.51,North,5,3.0,3.0,88,0.00,,---,0.00,VWS V12.08,2013-06-29 01:11:00,
2013-06-28 21:13:00,74.9,71.1,29.51,North,5,2.0,5.0,88,0.00,,---,0.00,VWS V12.08,2013-06-29 01:13:00,
2013-06-28 21:14:00,74.9,71.1,29.51,North,5,4.0,5.0,88,0.00,,---,0.00,VWS V12.08,2013-06-29 01:14:00,
2013-06-28 21:15:00,74.9,71.1,29.51,North,5,5.0,5.0,88,0.00,,---,0.00,VWS V12.08,2013-06-29 01:15:00,
2013-06-28 21:16:00,74.9,71.1,29.51,North,5,4.0,5.0,88,0.00,,---,0.00,VWS V12.08,2013-06-29 01:16:00,
2013-06-28 21:19:00,74.9,71.1,29.51,North,5,1.0,5.0,88,0.00,,---,0.00,VWS V12.08,2013-06-29 01:19:00,
2013-06-28 21:20:00,74.9,71.1,29.51,North,5,0.0,5.0,88,0.00,,---,0.00,VWS V12.08,2013-06-29 01:20:00,
2013-06-28 21:21:00,74.9,71.1,29.51,North,5,1.0,5.0,88,0.00,,---,0.00,VWS V12.08,2013-06-29 01:21:00,
2013-06-28 21:22:00,74.9,71.1,29.51,North,5,2.0,3.0,88,0.00,,---,0.00,VWS V12.08,2013-06-29 01:22:00,
2013-06-28 21:24:00,74.9,71.1,29.51,North,5,3.0,6.0,88,0.00,,---,0.00,VWS V12.08,2013-06-29 01:24:00,
2013-06-28 21:25:00,74.9,71.1,29.51,North,5,2.0,6.0,88,0.00,,---,0.00,VWS V12.08,2013-06-29 01:25:00,
2013-06-28 21:26:00,74.9,71.1,29.51,North,5,2.0,6.0,88,0.00,,---,0.00,VWS V12.08,2013-06-29 01:26:00,
2013-06-28 21:27:00,74.9,71.1,29.51,North,5,2.0,6.0,88,0.00,,---,0.00,VWS V12.08,2013-06-29 01:27:00,
2013-06-28 21:29:00,74.9,71.1,29.51,North,5,2.0,6.0,88,0.00,,---,0.00,VWS V12.08,2013-06-29 01:29:00,
2013-06-28 21:30:00,74.9,71.1,29.51,North,5,2.0,6.0,88,0.00,,---,0.00,VWS V12.08,2013-06-29 01:30:00,
2013-06-28 21:31:00,74.8,71.0,29.51,North,5,4.0,5.0,88,0.00,,---,0.00,VWS V12.08,2013-06-29 01:31:00,
2013-06-28 21:32:00,74.8,71.0,29.51,North,5,3.0,5.0,88,0.00,,---,0.00,VWS V12.08,2013-06-29 01:32:00,
2013-06-28 21:34:00,74.8,71.0,29.52,North,5,3.0,5.0,88,0.00,,---,0.00,VWS V12.08,2013-06-29 01:34:00,
2013-06-28 21:35:00,74.8,71.0,29.52,NNW,348,6.0,7.0,88,0.00,,---,0.00,VWS V12.08,2013-06-29 01:35:00,
2013-06-28 21:36:00,74.8,71.0,29.52,NW,306,9.0,9.0,88,0.00,,---,0.00,VWS V12.08,2013-06-29 01:36:00,
2013-06-28 21:37:00,74.8,71.0,29.52,NW,320,7.0,10.0,88,0.00,,---,0.00,VWS V12.08,2013-06-29 01:37:00,
2013-06-28 21:39:00,74.8,71.0,29.52,NW,325,4.0,10.0,88,0.00,,---,0.00,VWS V12.08,2013-06-29 01:39:00,
2013-06-28 21:40:00,74.8,71.0,29.52,NW,324,3.0,10.0,88,0.00,,---,0.00,VWS V12.08,2013-06-29 01:40:00,
2013-06-28 21:41:00,74.8,71.0,29.52,NW,326,5.0,9.0,88,0.00,,---,0.00,VWS V12.08,2013-06-29 01:41:00,
2013-06-28 21:43:00,74.8,71.0,29.52,NW,326,4.0,9.0,88,0.00,,---,0.00,VWS V12.08,2013-06-29 01:43:00,
2013-06-28 21:44:00,74.8,71.0,29.52,NW,326,4.0,9.0,88,0.00,,---,0.00,VWS V12.08,2013-06-29 01:44:00,
2013-06-28 21:45:00,74.8,71.0,29.51,NW,326,4.0,9.0,88,0.00,,---,0.00,VWS V12.08,2013-06-29 01:45:00,
2013-06-28 21:46:00,74.8,71.0,29.51,NW,326,3.0,9.0,88,0.00,,---,0.00,VWS V12.08,2013-06-29 01:46:00,
2013-06-28 21:48:00,74.7,70.9,29.51,NNW,327,5.0,9.0,88,0.00,,---,0.00,VWS V12.08,2013-06-29 01:48:00,
2013-06-28 21:49:00,74.7,70.9,29.51,NNW,327,4.0,9.0,88,0.00,,---,0.00,VWS V12.08,2013-06-29 01:49:00,
2013-06-28 21:50:00,74.7,70.9,29.51,NNW,327,4.0,9.0,88,0.00,,---,0.00,VWS V12.08,2013-06-29 01:50:00,
2013-06-28 21:51:00,74.7,70.9,29.51,NNW,327,3.0,3.0,88,0.00,,---,0.00,VWS V12.08,2013-06-29 01:51:00,
2013-06-28 21:53:00,74.7,70.9,29.51,NNW,327,5.0,5.0,88,0.00,,---,0.00,VWS V12.08,2013-06-29 01:53:00,
2013-06-28 21:54:00,74.7,70.9,29.51,NNW,327,2.0,5.0,88,0.00,,---,0.00,VWS V12.08,2013-06-29 01:54:00,
2013-06-28 21:55:00,74.7,70.9,29.51,NNW,327,5.0,5.0,88,0.00,,---,0.00,VWS V12.08,2013-06-29 01:55:00,
2013-06-28 21:56:00,74.7,70.9,29.51,NNW,327,4.0,6.0,88,0.00,,---,0.00,VWS V12.08,2013-06-29 01:56:00,
2013-06-28 21:58:00,74.7,70.9,29.51,NNW,327,3.0,6.0,88,0.00,,---,0.00,VWS V12.08,2013-06-29 01:58:00,
2013-06-28 21:59:00,74.7,70.9,29.52,NNW,327,1.0,6.0,88,0.00,,---,0.00,VWS V12.08,2013-06-29 01:59:00,
2013-06-28 22:00:00,74.7,70.9,29.52,NNW,327,0.0,6.0,88,0.00,,---,0.00,VWS V12.08,2013-06-29 02:00:00,
2013-06-28 22:01:00,74.7,70.9,29.52,NNW,327,0.0,0.0,88,0.00,,---,0.00,VWS V12.08,2013-06-29 02:01:00,
2013-06-28 22:02:00,74.6,70.8,29.52,NNW,327,0.0,0.0,88,0.00,,---,0.00,VWS V12.08,2013-06-29 02:02:00,
2013-06-28 22:03:00,74.6,70.8,29.52,NNW,327,1.0,2.0,88,0.00,,---,0.00,VWS V12.08,2013-06-29 02:03:00,
2013-06-28 22:04:00,74.4,70.6,29.52,NNW,327,1.0,2.0,88,0.00,,---,0.00,VWS V12.08,2013-06-29 02:04:00,
2013-06-28 22:05:00,74.4,70.6,29.52,NNW,327,1.0,3.0,88,0.00,,---,0.00,VWS V12.08,2013-06-29 02:05:00,
2013-06-28 22:07:00,74.2,70.1,29.52,NW,326,5.0,5.0,87,0.00,,---,0.00,VWS V12.08,2013-06-29 02:07:00,
2013-06-28 22:08:00,73.9,69.8,29.52,NW,326,2.0,5.0,87,0.00,,---,0.00,VWS V12.08,2013-06-29 02:08:00,
2013-06-28 22:09:00,73.7,69.6,29.52,NW,326,2.0,5.0,87,0.00,,---,0.00,VWS V12.08,2013-06-29 02:09:00,
2013-06-28 22:10:00,73.6,69.5,29.52,NW,326,0.0,5.0,87,0.00,,---,0.00,VWS V12.08,2013-06-29 02:10:00,
2013-06-28 22:12:00,73.5,69.7,29.52,NW,326,0.0,0.0,88,0.00,,---,0.00,VWS V12.08,2013-06-29 02:12:00,
2013-06-28 22:14:00,73.4,69.6,29.52,NW,326,0.0,1.0,88,0.00,,---,0.00,VWS V12.08,2013-06-29 02:14:00,
2013-06-28 22:15:00,73.4,69.6,29.52,NW,326,3.0,4.0,88,0.00,,---,0.01,VWS V12.08,2013-06-29 02:15:00,
2013-06-28 22:16:00,73.4,69.6,29.52,NW,326,3.0,4.0,88,0.01,,---,0.01,VWS V12.08,2013-06-29 02:16:00,
2013-06-28 22:17:00,73.5,69.7,29.52,NW,326,2.0,5.0,88,0.01,,---,0.01,VWS V12.08,2013-06-29 02:17:00,
2013-06-28 22:19:00,73.5,70.1,29.52,NW,326,4.0,5.0,89,0.01,,---,0.01,VWS V12.08,2013-06-29 02:19:00,
2013-06-28 22:20:00,73.6,70.2,29.52,NW,326,4.0,5.0,89,0.01,,---,0.01,VWS V12.08,2013-06-29 02:20:00,
2013-06-28 22:21:00,73.7,70.3,29.52,NW,326,2.0,2.0,89,0.01,,---,0.01,VWS V12.08,2013-06-29 02:21:00,
2013-06-28 22:22:00,73.7,70.3,29.52,NW,321,7.0,7.0,89,0.01,,---,0.01,VWS V12.08,2013-06-29 02:22:00,
2013-06-28 22:24:00,73.9,70.5,29.52,NW,321,5.0,7.0,89,0.02,,---,0.02,VWS V12.08,2013-06-29 02:24:00,
2013-06-28 22:25:00,74.0,70.6,29.51,NW,321,6.0,7.0,89,0.02,,---,0.02,VWS V12.08,2013-06-29 02:25:00,
2013-06-28 22:26:00,74.0,70.6,29.52,NW,321,5.0,7.0,89,0.02,,---,0.02,VWS V12.08,2013-06-29 02:26:00,
2013-06-28 22:27:00,74.0,70.6,29.51,NW,321,4.0,7.0,89,0.02,,---,0.02,VWS V12.08,2013-06-29 02:27:00,
2013-06-28 22:29:00,74.1,70.7,29.51,NW,321,1.0,7.0,89,0.02,,---,0.02,VWS V12.08,2013-06-29 02:29:00,
2013-06-28 22:31:00,74.1,70.7,29.51,NW,321,0.0,7.0,89,0.02,,---,0.02,VWS V12.08,2013-06-29 02:31:00,
2013-06-28 22:32:00,74.1,70.7,29.50,NW,321,4.0,4.0,89,0.03,,---,0.03,VWS V12.08,2013-06-29 02:32:00,
2013-06-28 22:34:00,74.1,71.0,29.51,NW,321,3.0,5.0,90,0.03,,---,0.03,VWS V12.08,2013-06-29 02:34:00,
2013-06-28 22:36:00,74.1,71.0,29.51,NW,321,1.0,5.0,90,0.03,,---,0.03,VWS V12.08,2013-06-29 02:36:00,
2013-06-28 22:37:00,74.1,71.0,29.51,NW,321,2.0,5.0,90,0.04,,---,0.04,VWS V12.08,2013-06-29 02:37:00,
2013-06-28 22:38:00,74.1,71.0,29.51,NW,321,2.0,5.0,90,0.04,,---,0.04,VWS V12.08,2013-06-29 02:38:00,
2013-06-28 22:39:00,74.1,71.0,29.51,NW,321,3.0,5.0,90,0.04,,---,0.04,VWS V12.08,2013-06-29 02:39:00,
2013-06-28 22:41:00,74.0,70.9,29.51,NW,321,2.0,5.0,90,0.04,,---,0.04,VWS V12.08,2013-06-29 02:41:00,
2013-06-28 22:42:00,74.0,70.9,29.51,NW,321,1.0,3.0,90,0.04,,---,0.04,VWS V12.08,2013-06-29 02:42:00,
2013-06-28 22:43:00,74.0,70.6,29.51,NW,321,1.0,3.0,89,0.04,,---,0.04,VWS V12.08,2013-06-29 02:43:00,
2013-06-28 22:44:00,74.0,70.6,29.50,NW,321,0.0,3.0,89,0.04,,---,0.04,VWS V12.08,2013-06-29 02:44:00,
2013-06-28 22:46:00,73.9,70.5,29.50,NW,321,3.0,3.0,89,0.04,,---,0.04,VWS V12.08,2013-06-29 02:46:00,
2013-06-28 22:47:00,73.8,70.4,29.50,NW,321,1.0,3.0,89,0.04,,---,0.04,VWS V12.08,2013-06-29 02:47:00,
2013-06-28 22:48:00,73.7,70.3,29.50,NW,321,2.0,3.0,89,0.04,,---,0.04,VWS V12.08,2013-06-29 02:48:00,
2013-06-28 22:49:00,73.6,70.5,29.50,NW,321,2.0,3.0,90,0.04,,---,0.04,VWS V12.08,2013-06-29 02:49:00,
2013-06-28 22:51:00,73.6,70.5,29.50,NW,321,3.0,5.0,90,0.04,,---,0.04,VWS V12.08,2013-06-29 02:51:00,
2013-06-28 22:52:00,73.6,70.5,29.50,NW,321,5.0,5.0,90,0.04,,---,0.04,VWS V12.08,2013-06-29 02:52:00,
2013-06-28 22:53:00,73.6,70.5,29.50,NW,321,4.0,5.0,90,0.04,,---,0.04,VWS V12.08,2013-06-29 02:53:00,
2013-06-28 22:54:00,73.5,70.4,29.50,NW,321,3.0,5.0,90,0.04,,---,0.04,VWS V12.08,2013-06-29 02:54:00,
2013-06-28 22:56:00,73.5,70.4,29.51,NW,321,4.0,6.0,90,0.04,,---,0.04,VWS V12.08,2013-06-29 02:56:00,
2013-06-28 22:57:00,73.5,70.4,29.51,NW,321,2.0,6.0,90,0.04,,---,0.04,VWS V12.08,2013-06-29 02:57:00,
2013-06-28 22:58:00,73.5,70.4,29.50,NW,321,4.0,6.0,90,0.04,,---,0.04,VWS V12.08,2013-06-29 02:58:00,
2013-06-28 22:59:00,73.4,70.3,29.50,NW,321,2.0,6.0,90,0.04,,---,0.04,VWS V12.08,2013-06-29 02:59:00,
2013-06-28 23:01:00,73.4,70.3,29.50,NW,321,0.0,0.0,90,0.04,,---,0.04,VWS V12.08,2013-06-29 03:01:00,
2013-06-28 23:02:00,73.3,70.2,29.50,NW,321,2.0,3.0,90,0.04,,---,0.04,VWS V12.08,2013-06-29 03:02:00,
2013-06-28 23:03:00,73.3,70.2,29.50,NW,321,2.0,3.0,90,0.04,,---,0.04,VWS V12.08,2013-06-29 03:03:00,
2013-06-28 23:04:00,73.1,69.7,29.50,NW,321,3.0,3.0,89,0.04,,---,0.04,VWS V12.08,2013-06-29 03:04:00,
2013-06-28 23:06:00,72.7,69.3,29.50,NW,321,2.0,3.0,89,0.04,,---,0.04,VWS V12.08,2013-06-29 03:06:00,
2013-06-28 23:07:00,72.6,69.2,29.50,NW,321,3.0,4.0,89,0.04,,---,0.04,VWS V12.08,2013-06-29 03:07:00,
2013-06-28 23:08:00,72.5,69.1,29.50,NW,321,3.0,4.0,89,0.04,,---,0.04,VWS V12.08,2013-06-29 03:08:00,
2013-06-28 23:09:00,72.4,69.0,29.50,NW,321,0.0,4.0,89,0.04,,---,0.04,VWS V12.08,2013-06-29 03:09:00,
2013-06-28 23:10:00,72.3,68.9,29.50,NW,321,1.0,4.0,89,0.04,,---,0.04,VWS V12.08,2013-06-29 03:10:00,
2013-06-28 23:12:00,72.1,68.7,29.49,NW,321,4.0,4.0,89,0.04,,---,0.04,VWS V12.08,2013-06-29 03:12:00,
2013-06-28 23:13:00,72.1,69.0,29.49,NW,321,2.0,4.0,90,0.04,,---,0.04,VWS V12.08,2013-06-29 03:13:00,
2013-06-28 23:14:00,72.0,68.9,29.49,NW,321,2.0,4.0,90,0.04,,---,0.04,VWS V12.08,2013-06-29 03:14:00,
2013-06-28 23:15:00,72.0,68.9,29.49,NW,321,3.0,4.0,90,0.04,,---,0.04,VWS V12.08,2013-06-29 03:15:00,
2013-06-28 23:17:00,72.1,69.0,29.49,NW,321,2.0,4.0,90,0.04,,---,0.04,VWS V12.08,2013-06-29 03:17:00,
2013-06-28 23:18:00,72.2,69.4,29.49,NW,321,3.0,6.0,91,0.04,,---,0.04,VWS V12.08,2013-06-29 03:18:00,
2013-06-28 23:19:00,72.2,69.1,29.49,NW,321,1.0,6.0,90,0.04,,---,0.04,VWS V12.08,2013-06-29 03:19:00,
2013-06-28 23:20:00,72.1,69.0,29.49,NW,321,4.0,6.0,90,0.04,,---,0.04,VWS V12.08,2013-06-29 03:20:00,
2013-06-28 23:22:00,71.5,68.1,29.50,NW,321,3.0,4.0,89,0.04,,---,0.05,VWS V12.08,2013-06-29 03:22:00,
2013-06-28 23:23:00,71.0,67.6,29.50,NW,321,2.0,5.0,89,0.04,,---,0.05,VWS V12.08,2013-06-29 03:23:00,
2013-06-28 23:24:00,70.8,67.4,29.50,NW,321,3.0,5.0,89,0.04,,---,0.05,VWS V12.08,2013-06-29 03:24:00,
2013-06-28 23:25:00,70.6,67.2,29.50,NW,321,3.0,5.0,89,0.04,,---,0.05,VWS V12.08,2013-06-29 03:25:00,
2013-06-28 23:27:00,70.1,66.7,29.50,SW,221,7.0,7.0,89,0.04,,---,0.05,VWS V12.08,2013-06-29 03:27:00,
2013-06-28 23:29:00,69.8,66.7,29.50,SW,228,3.0,7.0,90,0.04,,---,0.05,VWS V12.08,2013-06-29 03:29:00,
2013-06-28 23:30:00,69.5,66.4,29.49,SW,225,7.0,7.0,90,0.04,,---,0.05,VWS V12.08,2013-06-29 03:30:00,
2013-06-28 23:32:00,69.2,66.2,29.50,SW,224,5.0,8.0,90,0.03,,---,0.05,VWS V12.08,2013-06-29 03:32:00,
2013-06-28 23:34:00,69.3,66.6,29.49,SW,223,5.0,8.0,91,0.03,,---,0.05,VWS V12.08,2013-06-29 03:34:00,
2013-06-28 23:35:00,69.3,66.6,29.49,SW,224,5.0,8.0,91,0.03,,---,0.05,VWS V12.08,2013-06-29 03:35:00,
2013-06-28 23:37:00,69.0,66.3,29.49,SW,225,5.0,9.0,91,0.03,,---,0.05,VWS V12.08,2013-06-29 03:37:00,
2013-06-28 23:38:00,69.0,66.3,29.49,SW,217,5.0,9.0,91,0.03,,---,0.05,VWS V12.08,2013-06-29 03:38:00,
2013-06-28 23:39:00,68.9,65.8,29.49,SW,219,5.0,9.0,90,0.03,,---,0.05,VWS V12.08,2013-06-29 03:39:00,
2013-06-28 23:40:00,68.7,66.0,29.49,SW,215,5.0,9.0,91,0.03,,---,0.05,VWS V12.08,2013-06-29 03:40:00,
2013-06-28 23:43:00,68.5,65.8,29.49,SW,215,9.0,10.0,91,0.01,,---,0.05,VWS V12.08,2013-06-29 03:43:00,
2013-06-28 23:44:00,68.5,65.8,29.49,SSW,207,6.0,11.0,91,0.01,,---,0.05,VWS V12.08,2013-06-29 03:44:00,
2013-06-28 23:45:00,68.5,66.1,29.49,SW,214,5.0,11.0,92,0.01,,---,0.05,VWS V12.08,2013-06-29 03:45:00,
2013-06-28 23:48:00,68.5,66.1,29.49,SW,217,6.0,11.0,92,0.01,,---,0.05,VWS V12.08,2013-06-29 03:48:00,
2013-06-28 23:49:00,68.4,66.0,29.49,SW,217,5.0,11.0,92,0.01,,---,0.05,VWS V12.08,2013-06-29 03:49:00,
2013-06-28 23:50:00,68.4,65.7,29.49,SW,223,4.0,11.0,91,0.01,,---,0.05,VWS V12.08,2013-06-29 03:50:00,
2013-06-28 23:51:00,68.3,65.9,29.49,SSW,211,6.0,8.0,92,0.01,,---,0.05,VWS V12.08,2013-06-29 03:51:00,
2013-06-28 23:53:00,68.3,65.9,29.48,SSW,197,10.0,11.0,92,0.01,,---,0.05,VWS V12.08,2013-06-29 03:53:00,
2013-06-28 23:54:00,68.3,65.9,29.48,SW,214,6.0,11.0,92,0.01,,---,0.05,VWS V12.08,2013-06-29 03:54:00,
2013-06-28 23:55:00,68.3,65.9,29.48,SSW,201,6.0,11.0,92,0.01,,---,0.05,VWS V12.08,2013-06-29 03:55:00,
2013-06-28 23:56:00,68.3,65.9,29.48,SSW,212,6.0,11.0,92,0.01,,---,0.05,VWS V12.08,2013-06-29 03:56:00,
2013-06-28 23:58:00,68.3,65.9,29.48,SSW,205,11.0,12.0,92,0.01,,---,0.05,VWS V12.08,2013-06-29 03:58:00,
2013-06-28 23:59:00,68.4,66.0,29.48,SW,214,7.0,12.0,92,0.01,,---,0.05,VWS V12.08,2013-06-29 03:59:00,